Wetterdaten: Donnerstag, 19.07.2018
Datum Zeit Temp. Aussen Temp. o. S. +5cm Feuchte Auss Luftdruck Regen Sonnenschein Regendauer Solar Windben Empfang
19.07.2018 00:00 19,6 C 18,3 C 17,2 C 67 % 1015,8 hPa 0,0 l/m 0 min 0 min 0 W/m 0,0 km/h (0 Bft) 97,83 %
19.07.2018 00:02 19,6 C 18,3 C 17,2 C 67 % 1015,8 hPa 0,0 l/m 0 min 0 min 0 W/m 0,0 km/h (0 Bft) 95,24 %
19.07.2018 00:04 19,5 C 18,3 C 17,2 C 67 % 1015,8 hPa 0,0 l/m 0 min 0 min 0 W/m 0,0 km/h (0 Bft) 97,87 %
19.07.2018 00:08 19,4 C 18,3 C 17,2 C 67 % 1016,0 hPa 0,0 l/m 0 min 0 min 0 W/m 0,0 km/h (0 Bft) 97,92 %
19.07.2018 00:10 19,4 C 18,3 C 17,2 C 67 % 1015,8 hPa 0,0 l/m 0 min 0 min 0 W/m 0,0 km/h (0 Bft) 97,87 %
19.07.2018 00:12 19,4 C 18,3 C 17,2 C 67 % 1015,8 hPa 0,0 l/m 0 min 0 min 0 W/m 0,0 km/h (0 Bft) 97,87 %
19.07.2018 00:15 19,3 C 18,3 C 16,7 C 67 % 1015,9 hPa 0,0 l/m 0 min 0 min 0 W/m 0,0 km/h (0 Bft) 97,87 %
19.07.2018 00:16 19,3 C 18,3 C 16,7 C 67 % 1015,8 hPa 0,0 l/m 0 min 0 min 0 W/m 0,0 km/h (0 Bft) 97,78 %
19.07.2018 00:18 19,3 C 18,3 C 16,7 C 67 % 1015,9 hPa 0,0 l/m 0 min 0 min 0 W/m 0,0 km/h (0 Bft) 95,74 %
19.07.2018 00:20 19,3 C 18,3 C 16,7 C 67 % 1015,8 hPa 0,0 l/m 0 min 0 min 0 W/m 0,0 km/h (0 Bft) 93,62 %
19.07.2018 00:22 19,3 C 18,3 C 16,7 C 67 % 1015,8 hPa 0,0 l/m 0 min 0 min 0 W/m 0,0 km/h (0 Bft) 95,74 %
19.07.2018 00:24 19,2 C 18,3 C 16,7 C 67 % 1015,8 hPa 0,0 l/m 0 min 0 min 0 W/m 0,0 km/h (0 Bft) 95,65 %
19.07.2018 00:26 19,2 C 18,3 C 16,7 C 68 % 1015,8 hPa 0,0 l/m 0 min 0 min 0 W/m 0,0 km/h (0 Bft) 95,74 %
19.07.2018 00:28 19,2 C 17,8 C 16,7 C 68 % 1015,8 hPa 0,0 l/m 0 min 0 min 0 W/m 0,0 km/h (0 Bft) 95,74 %
19.07.2018 00:30 19,1 C 17,8 C 16,7 C 68 % 1015,7 hPa 0,0 l/m 0 min 0 min 0 W/m 0,0 km/h (0 Bft) 95,74 %
19.07.2018 00:32 19,1 C 17,8 C 16,7 C 68 % 1015,8 hPa 0,0 l/m 0 min 0 min 0 W/m 0,0 km/h (0 Bft) 95,74 %
19.07.2018 00:34 19,1 C 17,8 C 16,7 C 68 % 1015,8 hPa 0,0 l/m 0 min 0 min 0 W/m 0,0 km/h (0 Bft) 93,62 %
19.07.2018 00:36 19,1 C 17,8 C 16,7 C 68 % 1015,8 hPa 0,0 l/m 0 min 0 min 0 W/m 0,0 km/h (0 Bft) 95,65 %
19.07.2018 00:38 19,0 C 17,8 C 16,7 C 68 % 1015,8 hPa 0,0 l/m 0 min 0 min 0 W/m 0,0 km/h (0 Bft) 93,62 %
19.07.2018 00:40 19,0 C 17,8 C 16,7 C 68 % 1015,8 hPa 0,0 l/m 0 min 0 min 0 W/m 0,0 km/h (0 Bft) 95,74 %
19.07.2018 00:42 18,9 C 17,8 C 16,7 C 68 % 1015,9 hPa 0,0 l/m 0 min 0 min 0 W/m 0,0 km/h (0 Bft) 95,74 %
19.07.2018 00:44 18,9 C 17,8 C 16,7 C 69 % 1015,9 hPa 0,0 l/m 0 min 0 min 0 W/m 0,0 km/h (0 Bft) 95,74 %
19.07.2018 00:46 18,9 C 17,2 C 16,7 C 68 % 1015,9 hPa 0,0 l/m 0 min 0 min 0 W/m 0,0 km/h (0 Bft) 95,74 %
19.07.2018 00:48 18,9 C 17,2 C 16,7 C 68 % 1015,8 hPa 0,0 l/m 0 min 0 min 0 W/m 0,0 km/h (0 Bft) 95,65 %
19.07.2018 00:50 18,8 C 17,2 C 16,7 C 69 % 1015,8 hPa 0,0 l/m 0 min 0 min 0 W/m 0,0 km/h (0 Bft) 95,74 %
19.07.2018 00:52 18,8 C 17,8 C 16,7 C 69 % 1015,8 hPa 0,0 l/m 0 min 0 min 0 W/m 2,3 km/h (1 Bft) 95,74 %
19.07.2018 00:54 18,8 C 17,2 C 16,7 C 69 % 1015,9 hPa 0,0 l/m 0 min 0 min 0 W/m 4,5 km/h (1 Bft) 93,62 %
19.07.2018 00:56 18,7 C 17,2 C 16,7 C 70 % 1015,9 hPa 0,0 l/m 0 min 0 min 0 W/m 4,5 km/h (1 Bft) 91,49 %
19.07.2018 00:58 18,7 C 17,2 C 17,2 C 70 % 1015,9 hPa 0,0 l/m 0 min 0 min 0 W/m 4,5 km/h (1 Bft) 93,62 %
19.07.2018 01:00 18,7 C 17,2 C 17,2 C 70 % 1015,9 hPa 0,0 l/m 0 min 0 min 0 W/m 2,3 km/h (1 Bft) 91,30 %
19.07.2018 01:02 18,7 C 17,2 C 17,2 C 71 % 1016,0 hPa 0,0 l/m 0 min 0 min 0 W/m 6,8 km/h (2 Bft) 93,62 %
19.07.2018 01:04 18,6 C 17,2 C 17,2 C 71 % 1015,9 hPa 0,0 l/m 0 min 0 min 0 W/m 4,5 km/h (1 Bft) 97,87 %
19.07.2018 01:06 18,6 C 17,2 C 17,2 C 71 % 1015,9 hPa 0,0 l/m 0 min 0 min 0 W/m 2,3 km/h (1 Bft) 97,92 %
19.07.2018 01:08 18,6 C 17,2 C 16,7 C 71 % 1015,9 hPa 0,0 l/m 0 min 0 min 0 W/m 2,3 km/h (1 Bft) 93,62 %
19.07.2018 01:10 18,5 C 17,2 C 16,7 C 71 % 1015,9 hPa 0,0 l/m 0 min 0 min 0 W/m 2,3 km/h (1 Bft) 97,87 %
19.07.2018 01:12 18,5 C 17,2 C 16,7 C 71 % 1015,9 hPa 0,0 l/m 0 min 0 min 0 W/m 0,0 km/h (0 Bft) 95,65 %
19.07.2018 01:14 18,5 C 17,2 C 16,7 C 71 % 1015,9 hPa 0,0 l/m 0 min 0 min 0 W/m 0,0 km/h (0 Bft) 97,87 %
19.07.2018 01:16 18,4 C 17,2 C 16,7 C 71 % 1016,0 hPa 0,0 l/m 0 min 0 min 0 W/m 0,0 km/h (0 Bft) 95,74 %
19.07.2018 01:18 18,4 C 17,2 C 16,7 C 71 % 1016,0 hPa 0,0 l/m 0 min 0 min 0 W/m 2,3 km/h (1 Bft) 95,74 %
19.07.2018 01:20 18,4 C 17,2 C 16,7 C 71 % 1016,0 hPa 0,0 l/m 0 min 0 min 0 W/m 2,3 km/h (1 Bft) 93,62 %
19.07.2018 01:22 18,4 C 17,2 C 16,7 C 71 % 1016,1 hPa 0,0 l/m 0 min 0 min 0 W/m 2,3 km/h (1 Bft) 97,87 %
19.07.2018 01:24 18,3 C 16,7 C 16,7 C 71 % 1016,1 hPa 0,0 l/m 0 min 0 min 0 W/m 2,3 km/h (1 Bft) 97,87 %
19.07.2018 01:26 18,3 C 16,7 C 16,7 C 72 % 1016,2 hPa 0,0 l/m 0 min 0 min 0 W/m 0,0 km/h (0 Bft) 95,74 %
19.07.2018 01:28 18,3 C 16,7 C 16,7 C 72 % 1016,2 hPa 0,0 l/m 0 min 0 min 0 W/m 0,0 km/h (0 Bft) 97,87 %
19.07.2018 01:30 18,3 C 16,7 C 16,7 C 72 % 1016,2 hPa 0,0 l/m 0 min 0 min 0 W/m 0,0 km/h (0 Bft) 97,87 %
19.07.2018 01:32 18,2 C 16,7 C 16,1 C 72 % 1016,2 hPa 0,0 l/m 0 min 0 min 0 W/m 0,0 km/h (0 Bft) 97,87 %
19.07.2018 01:34 18,2 C 16,7 C 16,1 C 72 % 1016,2 hPa 0,0 l/m 0 min 0 min 0 W/m 0,0 km/h (0 Bft) 97,83 %
19.07.2018 01:36 18,2 C 16,7 C 16,1 C 72 % 1016,2 hPa 0,0 l/m 0 min 0 min 0 W/m 0,0 km/h (0 Bft) 97,87 %
19.07.2018 01:38 18,2 C 16,7 C 16,1 C 72 % 1016,1 hPa 0,0 l/m 0 min 0 min 0 W/m 0,0 km/h (0 Bft) 97,87 %
19.07.2018 01:40 18,1 C 16,7 C 16,1 C 72 % 1016,2 hPa 0,0 l/m 0 min 0 min 0 W/m 0,0 km/h (0 Bft) 97,87 %
19.07.2018 01:42 18,1 C 16,7 C 16,1 C 72 % 1016,2 hPa 0,0 l/m 0 min 0 min 0 W/m 0,0 km/h (0 Bft) 97,87 %
19.07.2018 01:44 18,1 C 16,7 C 16,1 C 72 % 1016,2 hPa 0,0 l/m 0 min 0 min 0 W/m 0,0 km/h (0 Bft) 97,87 %
19.07.2018 01:46 18,1 C 16,7 C 16,1 C 71 % 1016,3 hPa 0,0 l/m 0 min 0 min 0 W/m 0,0 km/h (0 Bft) 95,65 %
19.07.2018 01:48 18,0 C 16,7 C 16,1 C 72 % 1016,3 hPa 0,0 l/m 0 min 0 min 0 W/m 0,0 km/h (0 Bft) 97,87 %
19.07.2018 01:50 18,0 C 16,1 C 16,1 C 72 % 1016,3 hPa 0,0 l/m 0 min 0 min 0 W/m 0,0 km/h (0 Bft) 97,87 %
19.07.2018 01:52 17,9 C 16,1 C 16,1 C 72 % 1016,3 hPa 0,0 l/m 0 min 0 min 0 W/m 2,3 km/h (1 Bft) 100,00 %
19.07.2018 01:54 17,9 C 16,1 C 16,1 C 72 % 1016,3 hPa 0,0 l/m 0 min 0 min 0 W/m 2,3 km/h (1 Bft) 100,00 %
19.07.2018 01:56 17,9 C 16,1 C 16,1 C 72 % 1016,4 hPa 0,0 l/m 0 min 0 min 0 W/m 2,3 km/h (1 Bft) 100,00 %
19.07.2018 01:58 17,9 C 16,1 C 16,1 C 73 % 1016,3 hPa 0,0 l/m 0 min 0 min 0 W/m 0,0 km/h (0 Bft) 100,00 %
19.07.2018 02:00 17,8 C 16,1 C 16,1 C 73 % 1016,3 hPa 0,0 l/m 0 min 0 min 0 W/m 0,0 km/h (0 Bft) 100,00 %
19.07.2018 02:02 17,8 C 16,1 C 16,1 C 73 % 1016,3 hPa 0,0 l/m 0 min 0 min 0 W/m 0,0 km/h (0 Bft) 100,00 %
19.07.2018 02:04 17,8 C 16,1 C 16,1 C 73 % 1016,3 hPa 0,0 l/m 0 min 0 min 0 W/m 0,0 km/h (0 Bft) 100,00 %
19.07.2018 02:06 17,7 C 16,1 C 16,1 C 73 % 1016,4 hPa 0,0 l/m 0 min 0 min 0 W/m 0,0 km/h (0 Bft) 100,00 %
19.07.2018 02:08 17,7 C 16,1 C 16,1 C 73 % 1016,3 hPa 0,0 l/m 0 min 0 min 0 W/m 0,0 km/h (0 Bft) 100,00 %
19.07.2018 02:10 17,7 C 16,1 C 16,1 C 73 % 1016,3 hPa 0,0 l/m 0 min 0 min 0 W/m 0,0 km/h (0 Bft) 97,87 %
19.07.2018 02:12 17,7 C 16,1 C 15,6 C 73 % 1016,3 hPa 0,0 l/m 0 min 0 min 0 W/m 0,0 km/h (0 Bft) 100,00 %
19.07.2018 02:14 17,6 C 16,1 C 15,6 C 73 % 1016,3 hPa 0,0 l/m 0 min 0 min 0 W/m 2,3 km/h (1 Bft) 100,00 %
19.07.2018 02:16 17,6 C 16,1 C 15,6 C 73 % 1016,3 hPa 0,0 l/m 0 min 0 min 0 W/m 2,3 km/h (1 Bft) 100,00 %
19.07.2018 02:18 17,6 C 16,1 C 15,6 C 73 % 1016,3 hPa 0,0 l/m 0 min 0 min 0 W/m 0,0 km/h (0 Bft) 100,00 %
19.07.2018 02:20 17,5 C 16,1 C 15,6 C 73 % 1016,3 hPa 0,0 l/m 0 min 0 min 0 W/m 0,0 km/h (0 Bft) 100,00 %
19.07.2018 02:22 17,5 C 16,1 C 15,6 C 73 % 1016,3 hPa 0,0 l/m 0 min 0 min 0 W/m 0,0 km/h (0 Bft) 100,00 %
19.07.2018 02:24 17,4 C 15,6 C 15,6 C 73 % 1016,3 hPa 0,0 l/m 0 min 0 min 0 W/m 0,0 km/h (0 Bft) 100,00 %
19.07.2018 02:26 17,4 C 15,6 C 15,6 C 74 % 1016,2 hPa 0,0 l/m 0 min 0 min 0 W/m 0,0 km/h (0 Bft) 100,00 %
19.07.2018 02:28 17,4 C 15,6 C 15,6 C 74 % 1016,2 hPa 0,0 l/m 0 min 0 min 0 W/m 0,0 km/h (0 Bft) 100,00 %
19.07.2018 02:30 17,4 C 15,6 C 15,6 C 74 % 1016,3 hPa 0,0 l/m 0 min 0 min 0 W/m 0,0 km/h (0 Bft) 100,00 %
19.07.2018 02:32 17,3 C 15,6 C 15,6 C 74 % 1016,2 hPa 0,0 l/m 0 min 0 min 0 W/m 4,5 km/h (1 Bft) 100,00 %
19.07.2018 02:34 17,3 C 15,6 C 15,6 C 74 % 1016,2 hPa 0,0 l/m 0 min 0 min 0 W/m 2,3 km/h (1 Bft) 100,00 %
19.07.2018 02:36 17,3 C 15,6 C 15,6 C 74 % 1016,2 hPa 0,0 l/m 0 min 0 min 0 W/m 0,0 km/h (0 Bft) 100,00 %
19.07.2018 02:38 17,2 C 15,6 C 15,6 C 74 % 1016,3 hPa 0,0 l/m 0 min 0 min 0 W/m 0,0 km/h (0 Bft) 100,00 %
19.07.2018 02:40 17,2 C 15,6 C 15,6 C 74 % 1016,2 hPa 0,0 l/m 0 min 0 min 0 W/m 0,0 km/h (0 Bft) 97,87 %
19.07.2018 02:42 17,2 C 15,6 C 15,6 C 74 % 1016,2 hPa 0,0 l/m 0 min 0 min 0 W/m 0,0 km/h (0 Bft) 100,00 %
19.07.2018 02:44 17,1 C 15,6 C 15,6 C 74 % 1016,1 hPa 0,0 l/m 0 min 0 min 0 W/m 0,0 km/h (0 Bft) 100,00 %
19.07.2018 02:46 17,1 C 15,6 C 15,6 C 75 % 1016,1 hPa 0,0 l/m 0 min 0 min 0 W/m 0,0 km/h (0 Bft) 100,00 %
19.07.2018 02:48 17,1 C 15,6 C 15,0 C 75 % 1016,1 hPa 0,0 l/m 0 min 0 min 0 W/m 0,0 km/h (0 Bft) 100,00 %
19.07.2018 02:50 17,1 C 15,6 C 15,6 C 75 % 1016,1 hPa 0,0 l/m 0 min 0 min 0 W/m 0,0 km/h (0 Bft) 100,00 %
19.07.2018 02:52 17,0 C 15,6 C 15,6 C 75 % 1016,2 hPa 0,0 l/m 0 min 0 min 0 W/m 0,0 km/h (0 Bft) 97,87 %
19.07.2018 02:54 17,0 C 15,6 C 15,6 C 75 % 1016,2 hPa 0,0 l/m 0 min 0 min 0 W/m 0,0 km/h (0 Bft) 100,00 %
19.07.2018 02:56 16,9 C 15,6 C 15,6 C 75 % 1016,1 hPa 0,0 l/m 0 min 0 min 0 W/m 0,0 km/h (0 Bft) 100,00 %
19.07.2018 02:58 16,9 C 15,6 C 15,0 C 75 % 1016,1 hPa 0,0 l/m 0 min 0 min 0 W/m 0,0 km/h (0 Bft) 100,00 %
19.07.2018 03:00 16,9 C 15,6 C 15,0 C 75 % 1016,1 hPa 0,0 l/m 0 min 0 min 0 W/m 0,0 km/h (0 Bft) 100,00 %
19.07.2018 03:02 16,8 C 15,6 C 15,0 C 75 % 1015,9 hPa 0,0 l/m 0 min 0 min 0 W/m 0,0 km/h (0 Bft) 100,00 %
19.07.2018 03:04 16,8 C 16,1 C 15,0 C 76 % 1016,0 hPa 0,0 l/m 0 min 0 min 0 W/m 0,0 km/h (0 Bft) 100,00 %
19.07.2018 03:06 16,8 C 16,1 C 15,0 C 76 % 1016,1 hPa 0,0 l/m 0 min 0 min 0 W/m 0,0 km/h (0 Bft) 97,87 %
19.07.2018 03:08 16,8 C 16,1 C 15,0 C 76 % 1016,0 hPa 0,0 l/m 0 min 0 min 0 W/m 0,0 km/h (0 Bft) 100,00 %
19.07.2018 03:10 16,7 C 15,6 C 15,0 C 76 % 1016,1 hPa 0,0 l/m 0 min 0 min 0 W/m 0,0 km/h (0 Bft) 97,83 %
19.07.2018 03:12 16,7 C 15,6 C 15,0 C 76 % 1016,1 hPa 0,0 l/m 0 min 0 min 0 W/m 0,0 km/h (0 Bft) 100,00 %
19.07.2018 03:14 16,7 C 15,6 C 15,0 C 76 % 1016,1 hPa 0,0 l/m 0 min 0 min 0 W/m 0,0 km/h (0 Bft) 100,00 %
19.07.2018 03:16 16,7 C 15,6 C 15,0 C 76 % 1016,1 hPa 0,0 l/m 0 min 0 min 0 W/m 0,0 km/h (0 Bft) 93,62 %
19.07.2018 03:18 16,6 C 15,0 C 15,0 C 76 % 1016,1 hPa 0,0 l/m 0 min 0 min 0 W/m 0,0 km/h (0 Bft) 95,74 %
19.07.2018 03:20 16,6 C 15,0 C 15,0 C 76 % 1016,1 hPa 0,0 l/m 0 min 0 min 0 W/m 0,0 km/h (0 Bft) 95,74 %
19.07.2018 03:23 16,6 C 15,0 C 15,0 C 78 % 1016,2 hPa 0,0 l/m 0 min 0 min 0 W/m 2,3 km/h (1 Bft) 97,56 %
19.07.2018 03:24 16,6 C 15,0 C 15,0 C 78 % 1016,2 hPa 0,0 l/m 0 min 0 min 0 W/m 2,3 km/h (1 Bft) 100,00 %
19.07.2018 03:26 16,6 C 14,4 C 15,0 C 78 % 1016,1 hPa 0,0 l/m 0 min 0 min 0 W/m 4,5 km/h (1 Bft) 95,74 %
19.07.2018 03:28 16,5 C 14,4 C 15,0 C 78 % 1016,2 hPa 0,0 l/m 0 min 0 min 0 W/m 2,3 km/h (1 Bft) 95,74 %
19.07.2018 03:30 16,5 C 14,4 C 15,0 C 79 % 1016,3 hPa 0,0 l/m 0 min 0 min 0 W/m 2,3 km/h (1 Bft) 95,74 %
19.07.2018 03:32 16,4 C 14,4 C 15,0 C 79 % 1016,2 hPa 0,0 l/m 0 min 0 min 0 W/m 0,0 km/h (0 Bft) 97,87 %
19.07.2018 03:34 16,4 C 14,4 C 15,0 C 79 % 1016,2 hPa 0,0 l/m 0 min 0 min 0 W/m 0,0 km/h (0 Bft) 93,62 %
19.07.2018 03:36 16,4 C 14,4 C 15,0 C 79 % 1016,2 hPa 0,0 l/m 0 min 0 min 0 W/m 0,0 km/h (0 Bft) 91,49 %
19.07.2018 03:38 16,3 C 14,4 C 14,4 C 79 % 1016,1 hPa 0,0 l/m 0 min 0 min 0 W/m 0,0 km/h (0 Bft) 95,65 %
19.07.2018 03:40 16,3 C 14,4 C 14,4 C 79 % 1016,1 hPa 0,0 l/m 0 min 0 min 0 W/m 0,0 km/h (0 Bft) 95,74 %
19.07.2018 03:42 16,3 C 14,4 C 14,4 C 79 % 1016,1 hPa 0,0 l/m 0 min 0 min 0 W/m 0,0 km/h (0 Bft) 95,74 %
19.07.2018 03:44 16,2 C 14,4 C 14,4 C 79 % 1016,2 hPa 0,0 l/m 0 min 0 min 0 W/m 0,0 km/h (0 Bft) 95,74 %
19.07.2018 03:46 16,2 C 14,4 C 14,4 C 79 % 1016,2 hPa 0,0 l/m 0 min 0 min 0 W/m 2,3 km/h (1 Bft) 95,74 %
19.07.2018 03:48 16,2 C 14,4 C 14,4 C 80 % 1016,2 hPa 0,0 l/m 0 min 0 min 0 W/m 2,3 km/h (1 Bft) 95,74 %
19.07.2018 03:50 16,1 C 14,4 C 14,4 C 80 % 1016,2 hPa 0,0 l/m 0 min 0 min 0 W/m 0,0 km/h (0 Bft) 95,65 %
19.07.2018 03:52 16,1 C 14,4 C 14,4 C 80 % 1016,2 hPa 0,0 l/m 0 min 0 min 0 W/m 0,0 km/h (0 Bft) 93,62 %
19.07.2018 03:54 16,1 C 15,0 C 14,4 C 80 % 1016,1 hPa 0,0 l/m 0 min 0 min 0 W/m 2,3 km/h (1 Bft) 91,49 %
19.07.2018 03:56 16,1 C 14,4 C 14,4 C 80 % 1016,1 hPa 0,0 l/m 0 min 0 min 0 W/m 0,0 km/h (0 Bft) 95,74 %
19.07.2018 03:58 16,0 C 14,4 C 14,4 C 80 % 1016,1 hPa 0,0 l/m 0 min 0 min 0 W/m 0,0 km/h (0 Bft) 93,62 %
19.07.2018 04:00 16,0 C 14,4 C 14,4 C 80 % 1016,2 hPa 0,0 l/m 0 min 0 min 0 W/m 0,0 km/h (0 Bft) 93,62 %
19.07.2018 04:02 15,9 C 14,4 C 14,4 C 80 % 1016,2 hPa 0,0 l/m 0 min 0 min 0 W/m 0,0 km/h (0 Bft) 94,12 %
19.07.2018 04:04 15,9 C 14,4 C 14,4 C 80 % 1016,2 hPa 0,0 l/m 0 min 0 min 0 W/m 0,0 km/h (0 Bft) 95,74 %
19.07.2018 04:06 15,9 C 14,4 C 14,4 C 80 % 1016,2 hPa 0,0 l/m 0 min 0 min 0 W/m 0,0 km/h (0 Bft) 93,10 %
19.07.2018 04:08 15,9 C 14,4 C 14,4 C 80 % 1016,1 hPa 0,0 l/m 0 min 0 min 0 W/m 0,0 km/h (0 Bft) 100,00 %
19.07.2018 04:10 15,8 C 14,4 C 14,4 C 80 % 1016,1 hPa 0,0 l/m 0 min 0 min 0 W/m 0,0 km/h (0 Bft) 93,62 %
19.07.2018 04:12 15,8 C 14,4 C 14,4 C 80 % 1016,0 hPa 0,0 l/m 0 min 0 min 0 W/m 0,0 km/h (0 Bft) 97,87 %
19.07.2018 04:14 15,8 C 14,4 C 14,4 C 80 % 1016,2 hPa 0,0 l/m 0 min 0 min 0 W/m 0,0 km/h (0 Bft) 97,87 %
19.07.2018 04:16 15,7 C 14,4 C 14,4 C 80 % 1016,1 hPa 0,0 l/m 0 min 0 min 0 W/m 0,0 km/h (0 Bft) 97,87 %
19.07.2018 04:18 15,7 C 14,4 C 14,4 C 81 % 1016,2 hPa 0,0 l/m 0 min 0 min 0 W/m 0,0 km/h (0 Bft) 97,87 %
19.07.2018 04:20 15,7 C 14,4 C 14,4 C 81 % 1016,2 hPa 0,0 l/m 0 min 0 min 0 W/m 2,3 km/h (1 Bft) 95,65 %
19.07.2018 04:22 15,7 C 14,4 C 14,4 C 80 % 1016,2 hPa 0,0 l/m 0 min 0 min 0 W/m 0,0 km/h (0 Bft) 97,87 %
19.07.2018 04:24 15,6 C 14,4 C 14,4 C 80 % 1016,1 hPa 0,0 l/m 0 min 0 min 0 W/m 0,0 km/h (0 Bft) 97,87 %
19.07.2018 04:26 15,6 C 14,4 C 14,4 C 80 % 1016,1 hPa 0,0 l/m 0 min 0 min 0 W/m 0,0 km/h (0 Bft) 97,87 %
19.07.2018 04:28 15,6 C 14,4 C 14,4 C 80 % 1016,1 hPa 0,0 l/m 0 min 0 min 0 W/m 0,0 km/h (0 Bft) 95,74 %
19.07.2018 04:30 15,6 C 14,4 C 14,4 C 81 % 1016,1 hPa 0,0 l/m 0 min 0 min 0 W/m 0,0 km/h (0 Bft) 97,83 %
19.07.2018 04:32 15,5 C 13,9 C 14,4 C 81 % 1016,2 hPa 0,0 l/m 0 min 0 min 0 W/m 0,0 km/h (0 Bft) 97,87 %
19.07.2018 04:34 15,5 C 14,4 C 14,4 C 81 % 1016,1 hPa 0,0 l/m 0 min 0 min 0 W/m 0,0 km/h (0 Bft) 97,87 %
19.07.2018 04:36 15,5 C 14,4 C 14,4 C 81 % 1016,1 hPa 0,0 l/m 0 min 0 min 0 W/m 0,0 km/h (0 Bft) 95,74 %
19.07.2018 04:38 15,4 C 14,4 C 14,4 C 81 % 1016,1 hPa 0,0 l/m 0 min 0 min 0 W/m 0,0 km/h (0 Bft) 97,87 %
19.07.2018 04:40 15,4 C 14,4 C 14,4 C 81 % 1016,1 hPa 0,0 l/m 0 min 0 min 0 W/m 0,0 km/h (0 Bft) 97,87 %
19.07.2018 04:42 15,4 C 14,4 C 14,4 C 81 % 1016,2 hPa 0,0 l/m 0 min 0 min 0 W/m 0,0 km/h (0 Bft) 97,83 %
19.07.2018 04:44 15,4 C 14,4 C 14,4 C 81 % 1016,2 hPa 0,0 l/m 0 min 0 min 0 W/m 0,0 km/h (0 Bft) 97,87 %
19.07.2018 04:46 15,4 C 13,9 C 14,4 C 81 % 1016,1 hPa 0,0 l/m 0 min 0 min 0 W/m 0,0 km/h (0 Bft) 97,87 %
19.07.2018 04:48 15,3 C 14,4 C 13,9 C 81 % 1016,1 hPa 0,0 l/m 0 min 0 min 0 W/m 0,0 km/h (0 Bft) 97,87 %
19.07.2018 04:50 15,3 C 14,4 C 14,4 C 81 % 1016,0 hPa 0,0 l/m 0 min 0 min 0 W/m 0,0 km/h (0 Bft) 96,61 %
19.07.2018 04:52 15,3 C 14,4 C 14,4 C 81 % 1016,1 hPa 0,0 l/m 0 min 0 min 0 W/m 0,0 km/h (0 Bft) 100,00 %
19.07.2018 04:54 15,3 C 13,9 C 13,9 C 81 % 1016,2 hPa 0,0 l/m 0 min 0 min 0 W/m 0,0 km/h (0 Bft) 97,83 %
19.07.2018 04:56 15,3 C 13,9 C 13,9 C 81 % 1016,1 hPa 0,0 l/m 0 min 0 min 0 W/m 0,0 km/h (0 Bft) 97,87 %
19.07.2018 04:58 15,2 C 13,9 C 13,9 C 81 % 1016,1 hPa 0,0 l/m 0 min 0 min 0 W/m 0,0 km/h (0 Bft) 95,74 %
19.07.2018 05:00 15,2 C 13,9 C 13,9 C 81 % 1016,1 hPa 0,0 l/m 0 min 0 min 0 W/m 0,0 km/h (0 Bft) 97,87 %
19.07.2018 05:02 15,2 C 14,4 C 13,9 C 82 % 1016,0 hPa 0,0 l/m 0 min 0 min 0 W/m 0,0 km/h (0 Bft) 97,87 %
19.07.2018 05:04 15,2 C 13,9 C 13,9 C 81 % 1016,0 hPa 0,0 l/m 0 min 0 min 0 W/m 0,0 km/h (0 Bft) 97,87 %
19.07.2018 05:06 15,2 C 13,9 C 13,9 C 81 % 1016,0 hPa 0,0 l/m 0 min 0 min 0 W/m 0,0 km/h (0 Bft) 97,92 %
19.07.2018 05:08 15,2 C 13,9 C 13,9 C 82 % 1016,0 hPa 0,0 l/m 0 min 0 min 0 W/m 0,0 km/h (0 Bft) 97,83 %
19.07.2018 05:10 15,1 C 13,9 C 13,9 C 82 % 1016,0 hPa 0,0 l/m 0 min 0 min 0 W/m 0,0 km/h (0 Bft) 97,87 %
19.07.2018 05:12 15,1 C 13,9 C 13,9 C 82 % 1016,1 hPa 0,0 l/m 0 min 0 min 0 W/m 0,0 km/h (0 Bft) 100,00 %
19.07.2018 05:14 15,1 C 13,9 C 13,9 C 82 % 1015,9 hPa 0,0 l/m 0 min 0 min 0 W/m 0,0 km/h (0 Bft) 100,00 %
19.07.2018 05:16 15,1 C 13,9 C 13,9 C 82 % 1016,0 hPa 0,0 l/m 0 min 0 min 0 W/m 0,0 km/h (0 Bft) 100,00 %
19.07.2018 05:18 15,1 C 13,9 C 13,9 C 82 % 1015,9 hPa 0,0 l/m 0 min 0 min 0 W/m 0,0 km/h (0 Bft) 97,83 %
19.07.2018 05:20 15,0 C 13,9 C 13,9 C 82 % 1016,0 hPa 0,0 l/m 0 min 0 min 0 W/m 0,0 km/h (0 Bft) 97,87 %
19.07.2018 05:22 15,0 C 13,9 C 13,9 C 82 % 1016,0 hPa 0,0 l/m 0 min 0 min 0 W/m 0,0 km/h (0 Bft) 100,00 %
19.07.2018 05:24 15,0 C 13,9 C 13,9 C 82 % 1016,2 hPa 0,0 l/m 0 min 0 min 0 W/m 0,0 km/h (0 Bft) 97,87 %
19.07.2018 05:26 14,9 C 13,9 C 13,9 C 82 % 1016,1 hPa 0,0 l/m 0 min 0 min 0 W/m 0,0 km/h (0 Bft) 100,00 %
19.07.2018 05:28 14,9 C 13,9 C 13,9 C 82 % 1016,1 hPa 0,0 l/m 0 min 0 min 0 W/m 0,0 km/h (0 Bft) 97,87 %
19.07.2018 05:30 14,9 C 13,9 C 13,9 C 82 % 1016,1 hPa 0,0 l/m 0 min 0 min 0 W/m 0,0 km/h (0 Bft) 97,83 %
19.07.2018 05:32 14,9 C 13,9 C 13,9 C 82 % 1016,1 hPa 0,0 l/m 0 min 0 min 0 W/m 0,0 km/h (0 Bft) 95,74 %
19.07.2018 05:34 14,9 C 13,9 C 13,9 C 82 % 1016,1 hPa 0,0 l/m 0 min 0 min 0 W/m 0,0 km/h (0 Bft) 97,87 %
19.07.2018 05:35 14,8 C 13,9 C 13,9 C 82 % 1016,1 hPa 0,0 l/m 0 min 0 min 0 W/m 0,0 km/h (0 Bft) 100,00 %
19.07.2018 05:42 14,8 C 13,9 C 13,9 C 82 % 1016,1 hPa 0,0 l/m 0 min 0 min 5 W/m 0,0 km/h (0 Bft) 98,65 %
19.07.2018 05:44 14,8 C 13,3 C 13,9 C 82 % 1016,0 hPa 0,0 l/m 0 min 0 min 5 W/m 0,0 km/h (0 Bft) 98,00 %
19.07.2018 05:46 14,8 C 13,3 C 13,9 C 82 % 1015,9 hPa 0,0 l/m 0 min 0 min 5 W/m 0,0 km/h (0 Bft) 97,67 %
19.07.2018 05:48 14,7 C 13,3 C 13,3 C 82 % 1015,9 hPa 0,0 l/m 0 min 0 min 7 W/m 0,0 km/h (0 Bft) 95,74 %
19.07.2018 05:50 14,7 C 13,3 C 13,9 C 82 % 1015,9 hPa 0,0 l/m 0 min 0 min 7 W/m 0,0 km/h (0 Bft) 97,83 %
19.07.2018 05:52 14,7 C 13,9 C 13,3 C 82 % 1015,9 hPa 0,0 l/m 0 min 0 min 8 W/m 0,0 km/h (0 Bft) 98,15 %
19.07.2018 05:54 14,7 C 13,9 C 13,9 C 83 % 1016,0 hPa 0,0 l/m 0 min 0 min 9 W/m 0,0 km/h (0 Bft) 95,12 %
19.07.2018 05:56 14,7 C 13,9 C 13,9 C 83 % 1016,0 hPa 0,0 l/m 0 min 0 min 10 W/m 0,0 km/h (0 Bft) 97,92 %
19.07.2018 05:58 14,6 C 13,9 C 13,9 C 83 % 1015,9 hPa 0,0 l/m 0 min 0 min 11 W/m 0,0 km/h (0 Bft) 97,87 %
19.07.2018 06:00 14,6 C 13,9 C 13,9 C 83 % 1015,9 hPa 0,0 l/m 0 min 0 min 12 W/m 0,0 km/h (0 Bft) 95,65 %
19.07.2018 06:02 14,6 C 13,9 C 13,9 C 83 % 1015,9 hPa 0,0 l/m 0 min 0 min 12 W/m 0,0 km/h (0 Bft) 97,87 %
19.07.2018 06:04 14,6 C 13,9 C 13,9 C 83 % 1015,9 hPa 0,0 l/m 0 min 0 min 14 W/m 0,0 km/h (0 Bft) 98,00 %
19.07.2018 06:05 14,6 C 13,9 C 13,9 C 84 % 1016,1 hPa 0,0 l/m 0 min 0 min 14 W/m 0,0 km/h (0 Bft) 100,00 %
19.07.2018 06:10 14,6 C 13,9 C 13,9 C 84 % 1016,1 hPa 0,0 l/m 0 min 0 min 17 W/m 0,0 km/h (0 Bft) 100,00 %
19.07.2018 06:12 14,6 C 13,9 C 13,9 C 84 % 1016,0 hPa 0,0 l/m 0 min 0 min 16 W/m 0,0 km/h (0 Bft) 97,86 %
19.07.2018 06:14 14,6 C 13,9 C 13,9 C 84 % 1016,0 hPa 0,0 l/m 0 min 0 min 20 W/m 0,0 km/h (0 Bft) 97,87 %
19.07.2018 06:16 14,5 C 13,9 C 13,9 C 84 % 1016,1 hPa 0,0 l/m 0 min 0 min 21 W/m 0,0 km/h (0 Bft) 97,14 %
19.07.2018 06:18 14,5 C 13,9 C 13,9 C 85 % 1016,1 hPa 0,0 l/m 0 min 0 min 22 W/m 0,0 km/h (0 Bft) 100,00 %
19.07.2018 06:20 14,5 C 13,9 C 13,9 C 85 % 1016,1 hPa 0,0 l/m 0 min 0 min 24 W/m 0,0 km/h (0 Bft) 98,18 %
19.07.2018 06:24 14,5 C 14,4 C 13,9 C 85 % 1016,1 hPa 0,0 l/m 0 min 0 min 27 W/m 0,0 km/h (0 Bft) 96,00 %
19.07.2018 06:26 14,5 C 14,4 C 13,9 C 85 % 1016,1 hPa 0,0 l/m 0 min 0 min 30 W/m 0,0 km/h (0 Bft) 95,74 %
19.07.2018 06:28 14,5 C 14,4 C 13,9 C 86 % 1016,0 hPa 0,0 l/m 0 min 0 min 33 W/m 2,3 km/h (1 Bft) 97,87 %
19.07.2018 06:30 14,5 C 14,4 C 13,9 C 86 % 1016,1 hPa 0,0 l/m 0 min 0 min 36 W/m 2,3 km/h (1 Bft) 97,87 %
19.07.2018 06:32 14,5 C 15,0 C 14,4 C 86 % 1016,1 hPa 0,0 l/m 0 min 0 min 37 W/m 0,0 km/h (0 Bft) 94,29 %
19.07.2018 06:36 14,6 C 15,6 C 14,4 C 87 % 1016,0 hPa 0,0 l/m 0 min 0 min 39 W/m 4,5 km/h (1 Bft) 98,10 %
19.07.2018 06:38 14,6 C 15,6 C 14,4 C 87 % 1016,0 hPa 0,0 l/m 0 min 0 min 39 W/m 2,3 km/h (1 Bft) 94,29 %
19.07.2018 06:40 14,6 C 15,6 C 14,4 C 87 % 1016,1 hPa 0,0 l/m 0 min 0 min 39 W/m 2,3 km/h (1 Bft) 97,87 %
19.07.2018 06:42 14,6 C 15,6 C 14,4 C 87 % 1016,1 hPa 0,0 l/m 0 min 0 min 40 W/m 0,0 km/h (0 Bft) 95,74 %
19.07.2018 06:44 14,6 C 15,6 C 15,0 C 87 % 1016,1 hPa 0,0 l/m 0 min 0 min 42 W/m 2,3 km/h (1 Bft) 97,87 %
19.07.2018 06:46 14,7 C 16,1 C 15,0 C 88 % 1016,1 hPa 0,0 l/m 0 min 0 min 45 W/m 2,3 km/h (1 Bft) 93,62 %
19.07.2018 06:48 14,7 C 16,1 C 15,0 C 88 % 1016,1 hPa 0,0 l/m 0 min 0 min 48 W/m 0,0 km/h (0 Bft) 97,87 %
19.07.2018 06:50 14,7 C 16,1 C 15,0 C 88 % 1016,1 hPa 0,0 l/m 0 min 0 min 51 W/m 2,3 km/h (1 Bft) 95,65 %
19.07.2018 06:54 14,8 C 16,1 C 15,0 C 88 % 1016,1 hPa 0,0 l/m 0 min 0 min 56 W/m 2,3 km/h (1 Bft) 97,34 %
19.07.2018 06:56 14,8 C 16,1 C 15,0 C 88 % 1016,2 hPa 0,0 l/m 0 min 0 min 58 W/m 4,5 km/h (1 Bft) 95,00 %
19.07.2018 06:58 14,9 C 16,1 C 15,0 C 88 % 1016,1 hPa 0,0 l/m 0 min 0 min 62 W/m 4,5 km/h (1 Bft) 97,87 %
19.07.2018 07:00 14,9 C 16,1 C 15,0 C 88 % 1016,1 hPa 0,0 l/m 0 min 0 min 64 W/m 4,5 km/h (1 Bft) 97,83 %
19.07.2018 07:02 15,0 C 16,7 C 15,0 C 88 % 1016,1 hPa 0,0 l/m 0 min 0 min 67 W/m 4,5 km/h (1 Bft) 95,74 %
19.07.2018 07:04 15,1 C 16,7 C 15,6 C 87 % 1016,1 hPa 0,0 l/m 0 min 0 min 69 W/m 6,8 km/h (2 Bft) 97,87 %
19.07.2018 07:06 15,2 C 16,7 C 15,6 C 88 % 1016,2 hPa 0,0 l/m 0 min 0 min 73 W/m 4,5 km/h (1 Bft) 98,11 %
19.07.2018 07:08 15,2 C 16,7 C 15,6 C 87 % 1016,3 hPa 0,0 l/m 0 min 0 min 79 W/m 6,8 km/h (2 Bft) 100,00 %
19.07.2018 07:10 15,3 C 16,7 C 15,6 C 87 % 1016,2 hPa 0,0 l/m 0 min 0 min 83 W/m 9,0 km/h (2 Bft) 97,87 %
19.07.2018 07:12 15,3 C 16,7 C 15,6 C 87 % 1016,3 hPa 0,0 l/m 0 min 0 min 85 W/m 9,0 km/h (2 Bft) 100,00 %
19.07.2018 07:14 15,4 C 17,2 C 15,6 C 86 % 1016,3 hPa 0,0 l/m 0 min 0 min 86 W/m 4,5 km/h (1 Bft) 100,00 %
19.07.2018 07:16 15,4 C 17,2 C 15,6 C 86 % 1016,3 hPa 0,0 l/m 0 min 0 min 84 W/m 4,5 km/h (1 Bft) 100,00 %
19.07.2018 07:18 15,6 C 17,2 C 15,6 C 86 % 1016,3 hPa 0,0 l/m 0 min 0 min 86 W/m 6,8 km/h (2 Bft) 95,74 %
19.07.2018 07:20 15,6 C 17,2 C 16,1 C 86 % 1016,3 hPa 0,0 l/m 0 min 0 min 88 W/m 6,8 km/h (2 Bft) 100,00 %
19.07.2018 07:22 15,7 C 17,2 C 16,1 C 86 % 1016,3 hPa 0,0 l/m 0 min 0 min 90 W/m 4,5 km/h (1 Bft) 100,00 %
19.07.2018 07:24 15,8 C 17,2 C 16,1 C 86 % 1016,3 hPa 0,0 l/m 0 min 0 min 92 W/m 2,3 km/h (1 Bft) 100,00 %
19.07.2018 07:26 15,8 C 17,2 C 16,1 C 85 % 1016,3 hPa 0,0 l/m 0 min 0 min 96 W/m 4,5 km/h (1 Bft) 100,00 %
19.07.2018 07:28 15,9 C 17,2 C 16,1 C 85 % 1016,3 hPa 0,0 l/m 0 min 0 min 97 W/m 4,5 km/h (1 Bft) 100,00 %
19.07.2018 07:30 16,0 C 17,2 C 16,1 C 85 % 1016,4 hPa 0,0 l/m 0 min 0 min 98 W/m 6,8 km/h (2 Bft) 100,00 %
19.07.2018 07:32 16,1 C 17,2 C 16,1 C 85 % 1016,3 hPa 0,0 l/m 0 min 0 min 102 W/m 6,8 km/h (2 Bft) 100,00 %
19.07.2018 07:34 16,1 C 17,2 C 16,1 C 84 % 1016,3 hPa 0,0 l/m 0 min 0 min 104 W/m 9,0 km/h (2 Bft) 100,00 %
19.07.2018 07:36 16,2 C 17,2 C 16,1 C 84 % 1016,3 hPa 0,0 l/m 0 min 0 min 105 W/m 6,8 km/h (2 Bft) 100,00 %
19.07.2018 07:38 16,3 C 17,2 C 16,1 C 84 % 1016,3 hPa 0,0 l/m 0 min 0 min 105 W/m 6,8 km/h (2 Bft) 100,00 %
19.07.2018 07:40 16,3 C 17,2 C 16,1 C 84 % 1016,3 hPa 0,0 l/m 0 min 0 min 105 W/m 6,8 km/h (2 Bft) 100,00 %
19.07.2018 07:42 16,4 C 17,2 C 16,1 C 84 % 1016,2 hPa 0,0 l/m 0 min 0 min 107 W/m 6,8 km/h (2 Bft) 100,00 %
19.07.2018 07:44 16,4 C 17,2 C 16,1 C 83 % 1016,2 hPa 0,0 l/m 0 min 0 min 110 W/m 6,8 km/h (2 Bft) 100,00 %
19.07.2018 07:46 16,6 C 17,2 C 16,1 C 83 % 1016,2 hPa 0,0 l/m 0 min 0 min 113 W/m 6,8 km/h (2 Bft) 93,62 %
19.07.2018 07:48 16,6 C 17,8 C 16,1 C 83 % 1016,3 hPa 0,0 l/m 0 min 0 min 113 W/m 6,8 km/h (2 Bft) 100,00 %
19.07.2018 07:50 16,7 C 17,8 C 16,1 C 83 % 1016,2 hPa 0,0 l/m 0 min 0 min 111 W/m 6,8 km/h (2 Bft) 97,87 %
19.07.2018 07:52 16,7 C 17,8 C 16,1 C 83 % 1016,2 hPa 0,0 l/m 0 min 0 min 114 W/m 6,8 km/h (2 Bft) 97,37 %
19.07.2018 07:54 16,8 C 17,8 C 16,1 C 83 % 1016,2 hPa 0,0 l/m 0 min 0 min 117 W/m 4,5 km/h (1 Bft) 95,74 %
19.07.2018 07:56 16,8 C 17,8 C 16,1 C 82 % 1016,3 hPa 0,0 l/m 0 min 0 min 121 W/m 6,8 km/h (2 Bft) 93,62 %
19.07.2018 07:58 16,9 C 17,8 C 16,7 C 82 % 1016,3 hPa 0,0 l/m 0 min 0 min 125 W/m 4,5 km/h (1 Bft) 97,83 %
19.07.2018 08:00 16,9 C 17,8 C 16,7 C 82 % 1016,3 hPa 0,0 l/m 0 min 0 min 127 W/m 6,8 km/h (2 Bft) 97,87 %
19.07.2018 08:02 17,0 C 17,8 C 16,7 C 82 % 1016,3 hPa 0,0 l/m 0 min 0 min 129 W/m 4,5 km/h (1 Bft) 95,74 %
19.07.2018 08:04 17,1 C 18,3 C 16,7 C 82 % 1016,2 hPa 0,0 l/m 0 min 0 min 131 W/m 4,5 km/h (1 Bft) 93,62 %
19.07.2018 08:06 17,1 C 18,3 C 16,7 C 82 % 1016,2 hPa 0,0 l/m 0 min 0 min 132 W/m 6,8 km/h (2 Bft) 93,62 %
19.07.2018 08:08 17,1 C 18,3 C 16,7 C 82 % 1016,3 hPa 0,0 l/m 0 min 0 min 135 W/m 6,8 km/h (2 Bft) 95,74 %
19.07.2018 08:10 17,2 C 18,3 C 16,7 C 82 % 1016,2 hPa 0,0 l/m 0 min 0 min 140 W/m 11,3 km/h (2 Bft) 95,65 %
19.07.2018 08:12 17,2 C 18,3 C 16,7 C 81 % 1016,3 hPa 0,0 l/m 0 min 0 min 147 W/m 6,8 km/h (2 Bft) 95,74 %
19.07.2018 08:14 17,3 C 18,3 C 16,7 C 81 % 1016,3 hPa 0,0 l/m 0 min 0 min 147 W/m 6,8 km/h (2 Bft) 95,74 %
19.07.2018 08:16 17,3 C 18,3 C 16,7 C 81 % 1016,3 hPa 0,0 l/m 0 min 0 min 143 W/m 6,8 km/h (2 Bft) 95,74 %
19.07.2018 08:18 17,4 C 18,3 C 16,7 C 81 % 1016,3 hPa 0,0 l/m 0 min 0 min 139 W/m 6,8 km/h (2 Bft) 93,62 %
19.07.2018 08:20 17,4 C 18,3 C 16,7 C 81 % 1016,3 hPa 0,0 l/m 0 min 0 min 139 W/m 6,8 km/h (2 Bft) 95,74 %
19.07.2018 08:22 17,5 C 18,9 C 16,7 C 81 % 1016,2 hPa 0,0 l/m 0 min 0 min 141 W/m 9,0 km/h (2 Bft) 95,65 %
19.07.2018 08:24 17,6 C 18,9 C 16,7 C 81 % 1016,2 hPa 0,0 l/m 0 min 0 min 137 W/m 11,3 km/h (2 Bft) 95,74 %
19.07.2018 08:26 17,6 C 18,3 C 16,7 C 80 % 1016,3 hPa 0,0 l/m 0 min 0 min 132 W/m 9,0 km/h (2 Bft) 93,62 %
19.07.2018 08:28 17,7 C 18,3 C 16,7 C 80 % 1016,3 hPa 0,0 l/m 0 min 0 min 129 W/m 9,0 km/h (2 Bft) 95,74 %
19.07.2018 08:30 17,7 C 18,3 C 17,2 C 80 % 1016,2 hPa 0,0 l/m 0 min 0 min 131 W/m 6,8 km/h (2 Bft) 95,74 %
19.07.2018 08:32 17,8 C 18,9 C 17,2 C 80 % 1016,2 hPa 0,0 l/m 0 min 0 min 150 W/m 6,8 km/h (2 Bft) 95,74 %
19.07.2018 08:34 17,8 C 18,9 C 17,2 C 80 % 1016,3 hPa 0,0 l/m 2 min 0 min 245 W/m 6,8 km/h (2 Bft) 95,65 %
19.07.2018 08:36 17,8 C 18,9 C 17,2 C 79 % 1016,3 hPa 0,0 l/m 2 min 0 min 242 W/m 6,8 km/h (2 Bft) 95,74 %
19.07.2018 08:38 17,9 C 19,4 C 17,2 C 79 % 1016,3 hPa 0,0 l/m 2 min 0 min 311 W/m 9,0 km/h (2 Bft) 93,62 %
19.07.2018 08:40 18,0 C 19,4 C 17,2 C 79 % 1016,3 hPa 0,0 l/m 2 min 0 min 314 W/m 9,0 km/h (2 Bft) 95,74 %
19.07.2018 08:42 18,1 C 19,4 C 17,8 C 79 % 1016,3 hPa 0,0 l/m 2 min 0 min 344 W/m 9,0 km/h (2 Bft) 95,74 %
19.07.2018 08:44 18,1 C 20,0 C 17,8 C 79 % 1016,3 hPa 0,0 l/m 2 min 0 min 361 W/m 9,0 km/h (2 Bft) 95,65 %
19.07.2018 08:46 18,2 C 20,0 C 17,8 C 78 % 1016,2 hPa 0,0 l/m 2 min 0 min 374 W/m 9,0 km/h (2 Bft) 95,74 %
19.07.2018 08:48 18,3 C 20,6 C 17,8 C 78 % 1016,2 hPa 0,0 l/m 2 min 0 min 384 W/m 4,5 km/h (1 Bft) 97,87 %
19.07.2018 08:50 18,3 C 20,6 C 17,8 C 78 % 1016,3 hPa 0,0 l/m 2 min 0 min 404 W/m 6,8 km/h (2 Bft) 97,87 %
19.07.2018 08:52 18,4 C 20,6 C 18,3 C 78 % 1016,2 hPa 0,0 l/m 2 min 0 min 414 W/m 6,8 km/h (2 Bft) 97,87 %
19.07.2018 08:54 18,5 C 21,1 C 18,3 C 77 % 1016,3 hPa 0,0 l/m 2 min 0 min 429 W/m 6,8 km/h (2 Bft) 95,74 %
19.07.2018 08:56 18,6 C 21,1 C 18,3 C 77 % 1016,3 hPa 0,0 l/m 2 min 0 min 432 W/m 9,0 km/h (2 Bft) 100,00 %
19.07.2018 08:58 18,7 C 21,1 C 18,9 C 77 % 1016,3 hPa 0,0 l/m 2 min 0 min 426 W/m 9,0 km/h (2 Bft) 100,00 %
19.07.2018 09:00 18,8 C 21,1 C 18,9 C 76 % 1016,3 hPa 0,0 l/m 2 min 0 min 408 W/m 9,0 km/h (2 Bft) 97,87 %
19.07.2018 09:02 19,0 C 21,1 C 18,9 C 76 % 1016,2 hPa 0,0 l/m 2 min 0 min 404 W/m 9,0 km/h (2 Bft) 93,62 %
19.07.2018 09:04 19,1 C 21,1 C 18,9 C 76 % 1016,3 hPa 0,0 l/m 2 min 0 min 310 W/m 9,0 km/h (2 Bft) 95,74 %
19.07.2018 09:06 19,2 C 21,1 C 18,9 C 75 % 1016,2 hPa 0,0 l/m 2 min 0 min 325 W/m 4,5 km/h (1 Bft) 97,87 %
19.07.2018 09:08 19,3 C 21,7 C 18,9 C 75 % 1016,2 hPa 0,0 l/m 2 min 0 min 422 W/m 4,5 km/h (1 Bft) 95,65 %
19.07.2018 09:10 19,4 C 21,7 C 19,4 C 75 % 1016,3 hPa 0,0 l/m 2 min 0 min 440 W/m 6,8 km/h (2 Bft) 97,87 %
19.07.2018 09:12 19,6 C 21,7 C 19,4 C 75 % 1016,3 hPa 0,0 l/m 2 min 0 min 467 W/m 6,8 km/h (2 Bft) 97,87 %
19.07.2018 09:14 19,7 C 21,7 C 19,4 C 74 % 1016,3 hPa 0,0 l/m 2 min 0 min 460 W/m 9,0 km/h (2 Bft) 97,87 %
19.07.2018 09:16 19,8 C 21,7 C 19,4 C 74 % 1016,3 hPa 0,0 l/m 0 min 0 min 239 W/m 9,0 km/h (2 Bft) 97,87 %
19.07.2018 09:18 19,9 C 21,7 C 19,4 C 73 % 1016,3 hPa 0,0 l/m 0 min 0 min 240 W/m 11,3 km/h (2 Bft) 97,87 %
19.07.2018 09:20 19,9 C 21,7 C 19,4 C 73 % 1016,3 hPa 0,0 l/m 2 min 0 min 357 W/m 9,0 km/h (2 Bft) 93,48 %
19.07.2018 09:22 20,1 C 21,7 C 19,4 C 73 % 1016,4 hPa 0,0 l/m 2 min 0 min 399 W/m 11,3 km/h (2 Bft) 97,87 %
19.07.2018 09:24 20,2 C 21,7 C 19,4 C 72 % 1016,4 hPa 0,0 l/m 2 min 0 min 307 W/m 6,8 km/h (2 Bft) 98,18 %
19.07.2018 09:26 20,2 C 21,7 C 19,4 C 72 % 1016,4 hPa 0,0 l/m 2 min 0 min 300 W/m 9,0 km/h (2 Bft) 97,87 %
19.07.2018 09:28 20,3 C 22,2 C 19,4 C 72 % 1016,4 hPa 0,0 l/m 2 min 0 min 332 W/m 9,0 km/h (2 Bft) 97,87 %
19.07.2018 09:30 20,4 C 21,7 C 19,4 C 72 % 1016,4 hPa 0,0 l/m 2 min 0 min 285 W/m 6,8 km/h (2 Bft) 95,74 %
19.07.2018 09:32 20,4 C 22,2 C 19,4 C 71 % 1016,4 hPa 0,0 l/m 2 min 0 min 284 W/m 9,0 km/h (2 Bft) 97,83 %
19.07.2018 09:34 20,6 C 21,7 C 19,4 C 71 % 1016,4 hPa 0,0 l/m 2 min 0 min 283 W/m 11,3 km/h (2 Bft) 95,74 %
19.07.2018 09:36 20,6 C 22,2 C 19,4 C 71 % 1016,4 hPa 0,0 l/m 2 min 0 min 295 W/m 4,5 km/h (1 Bft) 97,87 %
19.07.2018 09:38 20,7 C 22,2 C 19,4 C 71 % 1016,5 hPa 0,0 l/m 2 min 0 min 287 W/m 9,0 km/h (2 Bft) 97,87 %
19.07.2018 09:40 20,7 C 22,2 C 19,4 C 71 % 1016,5 hPa 0,0 l/m 2 min 0 min 281 W/m 9,0 km/h (2 Bft) 100,00 %
19.07.2018 09:42 20,8 C 22,2 C 19,4 C 71 % 1016,4 hPa 0,0 l/m 2 min 0 min 283 W/m 4,5 km/h (1 Bft) 97,87 %
19.07.2018 09:44 20,8 C 22,2 C 19,4 C 71 % 1016,5 hPa 0,0 l/m 0 min 0 min 278 W/m 6,8 km/h (2 Bft) 100,00 %
19.07.2018 09:46 20,9 C 22,2 C 19,4 C 71 % 1016,6 hPa 0,0 l/m 0 min 0 min 279 W/m 6,8 km/h (2 Bft) 97,87 %
19.07.2018 09:48 20,9 C 22,8 C 19,4 C 71 % 1016,6 hPa 0,0 l/m 2 min 0 min 284 W/m 4,5 km/h (1 Bft) 100,00 %
19.07.2018 09:50 21,0 C 22,8 C 19,4 C 70 % 1016,6 hPa 0,0 l/m 2 min 0 min 294 W/m 6,8 km/h (2 Bft) 100,00 %
19.07.2018 09:52 21,0 C 22,2 C 20,0 C 71 % 1016,7 hPa 0,0 l/m 0 min 0 min 282 W/m 6,8 km/h (2 Bft) 97,37 %
19.07.2018 09:54 21,1 C 22,2 C 20,0 C 70 % 1016,7 hPa 0,0 l/m 0 min 0 min 270 W/m 9,0 km/h (2 Bft) 100,00 %
19.07.2018 09:56 21,1 C 22,2 C 20,0 C 70 % 1016,6 hPa 0,0 l/m 0 min 0 min 256 W/m 6,8 km/h (2 Bft) 100,00 %
19.07.2018 09:58 21,2 C 22,2 C 20,0 C 70 % 1016,7 hPa 0,0 l/m 0 min 0 min 252 W/m 6,8 km/h (2 Bft) 100,00 %
19.07.2018 10:00 21,2 C 22,8 C 20,0 C 71 % 1016,7 hPa 0,0 l/m 0 min 0 min 262 W/m 4,5 km/h (1 Bft) 100,00 %
19.07.2018 10:02 21,2 C 22,8 C 20,0 C 71 % 1016,7 hPa 0,0 l/m 2 min 0 min 519 W/m 6,8 km/h (2 Bft) 100,00 %
19.07.2018 10:04 21,3 C 22,2 C 20,0 C 70 % 1016,7 hPa 0,0 l/m 0 min 0 min 259 W/m 9,0 km/h (2 Bft) 100,00 %
19.07.2018 10:06 21,3 C 22,2 C 20,0 C 69 % 1016,6 hPa 0,0 l/m 0 min 0 min 242 W/m 4,5 km/h (1 Bft) 97,87 %
19.07.2018 10:08 21,3 C 22,2 C 20,0 C 70 % 1016,7 hPa 0,0 l/m 0 min 0 min 235 W/m 6,8 km/h (2 Bft) 100,00 %
19.07.2018 10:10 21,4 C 22,8 C 20,0 C 70 % 1016,7 hPa 0,0 l/m 0 min 0 min 240 W/m 4,5 km/h (1 Bft) 100,00 %
19.07.2018 10:12 21,4 C 22,8 C 20,0 C 70 % 1016,7 hPa 0,0 l/m 0 min 0 min 253 W/m 6,8 km/h (2 Bft) 100,00 %
19.07.2018 10:14 21,4 C 22,8 C 20,0 C 69 % 1016,7 hPa 0,0 l/m 0 min 0 min 260 W/m 4,5 km/h (1 Bft) 100,00 %
19.07.2018 10:16 21,5 C 23,3 C 20,0 C 69 % 1016,7 hPa 0,0 l/m 2 min 0 min 367 W/m 4,5 km/h (1 Bft) 100,00 %
19.07.2018 10:18 21,6 C 23,3 C 20,0 C 70 % 1016,7 hPa 0,0 l/m 2 min 0 min 428 W/m 2,3 km/h (1 Bft) 100,00 %
19.07.2018 10:20 21,6 C 23,3 C 20,0 C 70 % 1016,6 hPa 0,0 l/m 0 min 0 min 269 W/m 6,8 km/h (2 Bft) 100,00 %
19.07.2018 10:22 21,6 C 23,3 C 20,0 C 69 % 1016,6 hPa 0,0 l/m 0 min 0 min 243 W/m 4,5 km/h (1 Bft) 97,87 %
19.07.2018 10:24 21,7 C 23,3 C 20,0 C 70 % 1016,5 hPa 0,0 l/m 0 min 0 min 228 W/m 4,5 km/h (1 Bft) 100,00 %
19.07.2018 10:26 21,7 C 23,3 C 20,0 C 70 % 1016,6 hPa 0,0 l/m 0 min 0 min 215 W/m 2,3 km/h (1 Bft) 100,00 %
19.07.2018 10:28 21,7 C 23,3 C 20,0 C 70 % 1016,7 hPa 0,0 l/m 0 min 0 min 204 W/m 0,0 km/h (0 Bft) 100,00 %
19.07.2018 10:30 21,8 C 23,3 C 20,0 C 69 % 1016,6 hPa 0,0 l/m 0 min 0 min 199 W/m 2,3 km/h (1 Bft) 100,00 %
19.07.2018 10:32 21,8 C 23,3 C 20,0 C 70 % 1016,6 hPa 0,0 l/m 0 min 0 min 213 W/m 2,3 km/h (1 Bft) 97,87 %
19.07.2018 10:34 21,8 C 23,3 C 19,4 C 70 % 1016,6 hPa 0,0 l/m 0 min 0 min 256 W/m 2,3 km/h (1 Bft) 97,87 %
19.07.2018 10:36 21,8 C 23,3 C 20,0 C 69 % 1016,4 hPa 0,0 l/m 2 min 0 min 360 W/m 6,8 km/h (2 Bft) 100,00 %
19.07.2018 10:38 21,9 C 23,9 C 20,0 C 69 % 1016,5 hPa 0,0 l/m 2 min 0 min 419 W/m 4,5 km/h (1 Bft) 97,87 %
19.07.2018 10:40 21,9 C 24,4 C 20,0 C 70 % 1016,4 hPa 0,0 l/m 2 min 0 min 529 W/m 6,8 km/h (2 Bft) 100,00 %
19.07.2018 10:42 22,0 C 25,0 C 20,6 C 69 % 1016,5 hPa 0,0 l/m 2 min 0 min 484 W/m 6,8 km/h (2 Bft) 100,00 %
19.07.2018 10:44 22,1 C 25,0 C 20,6 C 69 % 1016,4 hPa 0,0 l/m 0 min 0 min 285 W/m 4,5 km/h (1 Bft) 100,00 %
19.07.2018 10:46 22,1 C 27,2 C 20,6 C 69 % 1016,4 hPa 0,0 l/m 2 min 0 min 517 W/m 2,3 km/h (1 Bft) 100,00 %
19.07.2018 10:48 22,2 C 27,8 C 20,6 C 70 % 1016,4 hPa 0,0 l/m 2 min 0 min 597 W/m 4,5 km/h (1 Bft) 100,00 %
19.07.2018 10:50 22,3 C 27,2 C 20,6 C 70 % 1016,4 hPa 0,0 l/m 2 min 0 min 616 W/m 4,5 km/h (1 Bft) 100,00 %
19.07.2018 10:52 22,4 C 27,8 C 21,1 C 70 % 1016,3 hPa 0,0 l/m 2 min 0 min 626 W/m 9,0 km/h (2 Bft) 97,87 %
19.07.2018 10:54 22,4 C 27,8 C 21,1 C 68 % 1016,3 hPa 0,0 l/m 2 min 0 min 620 W/m 11,3 km/h (2 Bft) 100,00 %
19.07.2018 10:56 22,6 C 27,8 C 21,1 C 67 % 1016,3 hPa 0,0 l/m 2 min 0 min 614 W/m 4,5 km/h (1 Bft) 97,87 %
19.07.2018 10:58 22,6 C 28,9 C 21,1 C 67 % 1016,3 hPa 0,0 l/m 2 min 0 min 629 W/m 9,0 km/h (2 Bft) 95,74 %
19.07.2018 11:00 22,8 C 30,0 C 21,1 C 67 % 1016,3 hPa 0,0 l/m 2 min 0 min 643 W/m 6,8 km/h (2 Bft) 97,87 %
19.07.2018 11:02 22,9 C 30,6 C 21,1 C 66 % 1016,3 hPa 0,0 l/m 2 min 0 min 646 W/m 4,5 km/h (1 Bft) 93,62 %
19.07.2018 11:04 23,1 C 31,1 C 21,1 C 66 % 1016,3 hPa 0,0 l/m 2 min 0 min 644 W/m 6,8 km/h (2 Bft) 97,87 %
19.07.2018 11:06 23,2 C 31,1 C 21,7 C 66 % 1016,3 hPa 0,0 l/m 2 min 0 min 657 W/m 6,8 km/h (2 Bft) 93,48 %
19.07.2018 11:08 23,4 C 32,2 C 21,7 C 65 % 1016,2 hPa 0,0 l/m 2 min 0 min 665 W/m 6,8 km/h (2 Bft) 95,74 %
19.07.2018 11:10 23,6 C 31,1 C 21,7 C 64 % 1016,3 hPa 0,0 l/m 2 min 0 min 669 W/m 9,0 km/h (2 Bft) 95,74 %
19.07.2018 11:12 23,8 C 30,6 C 22,2 C 63 % 1016,3 hPa 0,0 l/m 2 min 0 min 662 W/m 13,5 km/h (3 Bft) 95,74 %
19.07.2018 11:14 24,1 C 31,7 C 22,2 C 62 % 1016,4 hPa 0,0 l/m 2 min 0 min 652 W/m 9,0 km/h (2 Bft) 97,87 %
19.07.2018 11:16 24,2 C 31,1 C 22,2 C 61 % 1016,3 hPa 0,0 l/m 2 min 0 min 646 W/m 9,0 km/h (2 Bft) 95,74 %
19.07.2018 11:18 24,4 C 30,6 C 22,2 C 60 % 1016,2 hPa 0,0 l/m 2 min 0 min 660 W/m 13,5 km/h (3 Bft) 91,30 %
19.07.2018 11:20 24,7 C 31,1 C 22,2 C 61 % 1016,2 hPa 0,0 l/m 2 min 0 min 678 W/m 9,0 km/h (2 Bft) 95,74 %
19.07.2018 11:22 24,8 C 30,6 C 22,8 C 59 % 1016,2 hPa 0,0 l/m 2 min 0 min 675 W/m 11,3 km/h (2 Bft) 95,74 %
19.07.2018 11:24 25,0 C 31,1 C 22,8 C 58 % 1016,2 hPa 0,0 l/m 2 min 0 min 679 W/m 6,8 km/h (2 Bft) 95,74 %
19.07.2018 11:26 25,1 C 31,7 C 22,8 C 58 % 1016,2 hPa 0,0 l/m 2 min 0 min 681 W/m 9,0 km/h (2 Bft) 93,62 %
19.07.2018 11:28 25,3 C 32,2 C 22,8 C 58 % 1016,2 hPa 0,0 l/m 2 min 0 min 688 W/m 13,5 km/h (3 Bft) 93,48 %
19.07.2018 11:30 25,5 C 32,2 C 22,8 C 57 % 1016,1 hPa 0,0 l/m 2 min 0 min 703 W/m 6,8 km/h (2 Bft) 95,74 %
19.07.2018 11:32 25,6 C 31,7 C 23,3 C 56 % 1016,1 hPa 0,0 l/m 2 min 0 min 705 W/m 9,0 km/h (2 Bft) 91,49 %
19.07.2018 11:34 25,8 C 32,2 C 23,3 C 56 % 1016,1 hPa 0,0 l/m 2 min 0 min 701 W/m 11,3 km/h (2 Bft) 91,49 %
19.07.2018 11:36 25,9 C 32,2 C 22,8 C 56 % 1016,1 hPa 0,0 l/m 2 min 0 min 706 W/m 9,0 km/h (2 Bft) 91,49 %
19.07.2018 11:38 26,1 C 32,2 C 23,3 C 56 % 1016,1 hPa 0,0 l/m 2 min 0 min 714 W/m 9,0 km/h (2 Bft) 91,49 %
19.07.2018 11:40 26,2 C 32,8 C 23,3 C 55 % 1016,1 hPa 0,0 l/m 2 min 0 min 706 W/m 6,8 km/h (2 Bft) 93,48 %
19.07.2018 11:42 26,3 C 33,3 C 23,3 C 55 % 1016,1 hPa 0,0 l/m 2 min 0 min 717 W/m 6,8 km/h (2 Bft) 93,62 %
19.07.2018 11:44 26,4 C 33,3 C 23,3 C 54 % 1016,1 hPa 0,0 l/m 2 min 0 min 715 W/m 9,0 km/h (2 Bft) 91,49 %
19.07.2018 11:46 26,6 C 32,2 C 23,3 C 54 % 1016,2 hPa 0,0 l/m 2 min 0 min 711 W/m 9,0 km/h (2 Bft) 93,62 %
19.07.2018 11:48 26,7 C 32,8 C 23,3 C 54 % 1016,1 hPa 0,0 l/m 2 min 0 min 680 W/m 6,8 km/h (2 Bft) 93,62 %
19.07.2018 11:50 26,8 C 32,8 C 23,3 C 54 % 1016,1 hPa 0,0 l/m 2 min 0 min 668 W/m 11,3 km/h (2 Bft) 95,74 %
19.07.2018 11:52 26,9 C 32,2 C 23,9 C 52 % 1016,1 hPa 0,0 l/m 2 min 0 min 695 W/m 9,0 km/h (2 Bft) 93,48 %
19.07.2018 11:54 27,0 C 32,8 C 23,3 C 53 % 1016,0 hPa 0,0 l/m 2 min 0 min 715 W/m 6,8 km/h (2 Bft) 93,62 %
19.07.2018 11:56 27,1 C 32,8 C 23,3 C 52 % 1016,1 hPa 0,0 l/m 2 min 0 min 722 W/m 6,8 km/h (2 Bft) 93,62 %
19.07.2018 11:58 27,2 C 32,8 C 23,3 C 52 % 1016,1 hPa 0,0 l/m 2 min 0 min 719 W/m 11,3 km/h (2 Bft) 93,62 %
19.07.2018 12:00 27,3 C 33,3 C 23,9 C 52 % 1016,1 hPa 0,0 l/m 2 min 0 min 717 W/m 9,0 km/h (2 Bft) 95,74 %
19.07.2018 12:02 27,4 C 34,4 C 23,9 C 55 % 1016,0 hPa 0,0 l/m 2 min 0 min 722 W/m 4,5 km/h (1 Bft) 93,62 %
19.07.2018 12:04 27,6 C 35,6 C 23,3 C 54 % 1016,0 hPa 0,0 l/m 2 min 0 min 731 W/m 2,3 km/h (1 Bft) 95,74 %
19.07.2018 12:08 27,8 C 36,1 C 23,3 C 53 % 1015,9 hPa 0,0 l/m 4 min 0 min 740 W/m 6,8 km/h (2 Bft) 95,70 %
19.07.2018 12:10 27,8 C 35,6 C 23,9 C 52 % 1016,0 hPa 0,0 l/m 2 min 0 min 757 W/m 6,8 km/h (2 Bft) 97,87 %
19.07.2018 12:12 27,9 C 34,4 C 23,9 C 50 % 1015,9 hPa 0,0 l/m 2 min 0 min 764 W/m 13,5 km/h (3 Bft) 97,87 %
19.07.2018 12:14 28,1 C 34,4 C 23,9 C 50 % 1016,1 hPa 0,0 l/m 2 min 0 min 773 W/m 11,3 km/h (2 Bft) 97,87 %
19.07.2018 12:16 28,1 C 34,4 C 23,9 C 50 % 1015,9 hPa 0,0 l/m 2 min 0 min 785 W/m 11,3 km/h (2 Bft) 100,00 %
19.07.2018 12:18 28,2 C 34,4 C 24,4 C 48 % 1015,9 hPa 0,0 l/m 2 min 0 min 787 W/m 11,3 km/h (2 Bft) 100,00 %
19.07.2018 12:20 28,3 C 33,9 C 24,4 C 48 % 1015,9 hPa 0,0 l/m 2 min 0 min 785 W/m 9,0 km/h (2 Bft) 100,00 %
19.07.2018 12:22 28,4 C 33,9 C 24,4 C 48 % 1015,9 hPa 0,0 l/m 2 min 0 min 782 W/m 11,3 km/h (2 Bft) 100,00 %
19.07.2018 12:24 28,4 C 33,9 C 24,4 C 47 % 1015,9 hPa 0,0 l/m 2 min 0 min 794 W/m 9,0 km/h (2 Bft) 97,87 %
19.07.2018 12:26 28,6 C 35,6 C 23,9 C 49 % 1015,9 hPa 0,0 l/m 2 min 0 min 807 W/m 4,5 km/h (1 Bft) 100,00 %
19.07.2018 12:28 28,6 C 35,0 C 24,4 C 47 % 1015,9 hPa 0,0 l/m 2 min 0 min 807 W/m 11,3 km/h (2 Bft) 100,00 %
19.07.2018 12:30 28,7 C 33,9 C 25,0 C 46 % 1015,9 hPa 0,0 l/m 2 min 0 min 473 W/m 9,0 km/h (2 Bft) 100,00 %
19.07.2018 12:32 28,7 C 33,9 C 25,0 C 46 % 1015,8 hPa 0,0 l/m 0 min 0 min 253 W/m 11,3 km/h (2 Bft) 100,00 %
19.07.2018 12:34 28,7 C 32,8 C 25,0 C 45 % 1015,9 hPa 0,0 l/m 0 min 0 min 215 W/m 11,3 km/h (2 Bft) 100,00 %
19.07.2018 12:36 28,8 C 34,4 C 25,0 C 47 % 1015,8 hPa 0,0 l/m 0 min 0 min 213 W/m 6,8 km/h (2 Bft) 100,00 %
19.07.2018 12:38 28,8 C 36,1 C 24,4 C 49 % 1015,8 hPa 0,0 l/m 2 min 0 min 448 W/m 4,5 km/h (1 Bft) 100,00 %
19.07.2018 12:40 28,8 C 35,0 C 25,0 C 46 % 1015,9 hPa 0,0 l/m 2 min 0 min 540 W/m 13,5 km/h (3 Bft) 97,87 %
19.07.2018 12:42 28,9 C 33,9 C 25,0 C 44 % 1015,8 hPa 0,0 l/m 0 min 0 min 306 W/m 11,3 km/h (2 Bft) 97,87 %
19.07.2018 12:44 28,9 C 33,9 C 25,0 C 47 % 1015,9 hPa 0,0 l/m 0 min 0 min 357 W/m 9,0 km/h (2 Bft) 100,00 %
19.07.2018 12:46 28,9 C 31,7 C 24,4 C 45 % 1015,8 hPa 0,0 l/m 0 min 0 min 349 W/m 11,3 km/h (2 Bft) 97,87 %
19.07.2018 12:48 28,9 C 31,1 C 24,4 C 45 % 1015,8 hPa 0,0 l/m 0 min 0 min 294 W/m 11,3 km/h (2 Bft) 100,00 %
19.07.2018 12:50 28,9 C 32,2 C 25,0 C 46 % 1015,8 hPa 0,0 l/m 2 min 0 min 754 W/m 9,0 km/h (2 Bft) 100,00 %
19.07.2018 12:52 28,8 C 31,7 C 25,0 C 45 % 1015,7 hPa 0,0 l/m 2 min 0 min 803 W/m 9,0 km/h (2 Bft) 100,00 %
19.07.2018 12:54 28,8 C 30,0 C 24,4 C 45 % 1015,7 hPa 0,0 l/m 2 min 0 min 466 W/m 9,0 km/h (2 Bft) 100,00 %
19.07.2018 12:56 28,8 C 30,0 C 24,4 C 44 % 1015,7 hPa 0,0 l/m 0 min 0 min 329 W/m 6,8 km/h (2 Bft) 100,00 %
19.07.2018 12:58 28,8 C 31,1 C 24,4 C 46 % 1015,7 hPa 0,0 l/m 0 min 0 min 397 W/m 9,0 km/h (2 Bft) 100,00 %
19.07.2018 13:00 28,7 C 31,1 C 24,4 C 45 % 1015,7 hPa 0,0 l/m 2 min 0 min 420 W/m 18,0 km/h (3 Bft) 100,00 %
19.07.2018 13:02 28,7 C 32,2 C 24,4 C 46 % 1015,7 hPa 0,0 l/m 2 min 0 min 647 W/m 9,0 km/h (2 Bft) 100,00 %
19.07.2018 13:04 28,7 C 33,3 C 24,4 C 45 % 1015,7 hPa 0,0 l/m 2 min 0 min 900 W/m 6,8 km/h (2 Bft) 100,00 %
19.07.2018 13:06 28,7 C 33,9 C 25,0 C 45 % 1015,7 hPa 0,0 l/m 2 min 0 min 891 W/m 9,0 km/h (2 Bft) 100,00 %
19.07.2018 13:08 28,7 C 32,8 C 25,0 C 47 % 1015,7 hPa 0,0 l/m 2 min 0 min 882 W/m 11,3 km/h (2 Bft) 100,00 %
19.07.2018 13:10 28,6 C 30,6 C 25,0 C 44 % 1015,6 hPa 0,0 l/m 0 min 0 min 330 W/m 11,3 km/h (2 Bft) 100,00 %
19.07.2018 13:12 28,6 C 29,4 C 24,4 C 45 % 1015,5 hPa 0,0 l/m 0 min 0 min 267 W/m 11,3 km/h (2 Bft) 100,00 %
19.07.2018 13:14 28,5 C 28,3 C 24,4 C 45 % 1015,5 hPa 0,0 l/m 0 min 0 min 271 W/m 6,8 km/h (2 Bft) 100,00 %
19.07.2018 13:16 28,4 C 28,3 C 24,4 C 45 % 1015,6 hPa 0,0 l/m 0 min 0 min 320 W/m 6,8 km/h (2 Bft) 100,00 %
19.07.2018 13:18 28,4 C 32,2 C 24,4 C 47 % 1015,5 hPa 0,0 l/m 2 min 0 min 527 W/m 4,5 km/h (1 Bft) 100,00 %
19.07.2018 13:20 28,4 C 32,8 C 24,4 C 46 % 1015,5 hPa 0,0 l/m 2 min 0 min 917 W/m 4,5 km/h (1 Bft) 97,87 %
19.07.2018 13:22 28,3 C 34,4 C 24,4 C 46 % 1015,4 hPa 0,0 l/m 2 min 0 min 880 W/m 4,5 km/h (1 Bft) 100,00 %
19.07.2018 13:24 28,3 C 35,0 C 24,4 C 46 % 1015,4 hPa 0,0 l/m 2 min 0 min 880 W/m 6,8 km/h (2 Bft) 97,87 %
19.07.2018 13:26 28,3 C 36,1 C 24,4 C 47 % 1015,4 hPa 0,0 l/m 2 min 0 min 903 W/m 4,5 km/h (1 Bft) 100,00 %
19.07.2018 13:28 28,3 C 33,9 C 25,0 C 45 % 1015,4 hPa 0,0 l/m 2 min 0 min 900 W/m 6,8 km/h (2 Bft) 100,00 %
19.07.2018 13:30 28,3 C 32,8 C 25,6 C 46 % 1015,4 hPa 0,0 l/m 2 min 0 min 800 W/m 6,8 km/h (2 Bft) 100,00 %
19.07.2018 13:32 28,3 C 32,8 C 25,6 C 45 % 1015,3 hPa 0,0 l/m 2 min 0 min 746 W/m 11,3 km/h (2 Bft) 100,00 %
19.07.2018 13:34 28,3 C 33,3 C 25,6 C 45 % 1015,4 hPa 0,0 l/m 2 min 0 min 929 W/m 9,0 km/h (2 Bft) 100,00 %
19.07.2018 13:36 28,3 C 31,7 C 26,1 C 44 % 1015,3 hPa 0,0 l/m 2 min 0 min 935 W/m 6,8 km/h (2 Bft) 100,00 %
19.07.2018 13:38 28,3 C 30,0 C 25,6 C 44 % 1015,3 hPa 0,0 l/m 2 min 0 min 592 W/m 6,8 km/h (2 Bft) 100,00 %
19.07.2018 13:40 28,3 C 28,9 C 25,6 C 45 % 1015,4 hPa 0,0 l/m 0 min 0 min 262 W/m 9,0 km/h (2 Bft) 100,00 %
19.07.2018 13:42 28,3 C 28,9 C 25,6 C 45 % 1015,3 hPa 0,0 l/m 2 min 0 min 773 W/m 11,3 km/h (2 Bft) 100,00 %
19.07.2018 13:44 28,3 C 28,9 C 25,6 C 46 % 1015,3 hPa 0,0 l/m 2 min 0 min 862 W/m 4,5 km/h (1 Bft) 100,00 %
19.07.2018 13:46 28,3 C 27,8 C 25,0 C 45 % 1015,3 hPa 0,0 l/m 2 min 0 min 461 W/m 9,0 km/h (2 Bft) 97,87 %
19.07.2018 13:48 28,3 C 27,8 C 25,0 C 46 % 1015,3 hPa 0,0 l/m 0 min 0 min 229 W/m 4,5 km/h (1 Bft) 100,00 %
19.07.2018 13:50 28,2 C 28,3 C 25,0 C 47 % 1015,3 hPa 0,0 l/m 0 min 0 min 299 W/m 4,5 km/h (1 Bft) 100,00 %
19.07.2018 13:52 28,2 C 28,3 C 25,6 C 44 % 1015,3 hPa 0,0 l/m 2 min 0 min 948 W/m 9,0 km/h (2 Bft) 97,83 %
19.07.2018 13:54 28,2 C 28,3 C 25,6 C 45 % 1015,3 hPa 0,0 l/m 2 min 0 min 953 W/m 6,8 km/h (2 Bft) 97,87 %
19.07.2018 13:56 28,2 C 28,9 C 26,1 C 44 % 1015,2 hPa 0,0 l/m 2 min 0 min 933 W/m 6,8 km/h (2 Bft) 100,00 %
19.07.2018 13:58 28,2 C 29,4 C 26,1 C 44 % 1015,2 hPa 0,0 l/m 2 min 0 min 938 W/m 4,5 km/h (1 Bft) 97,87 %
19.07.2018 14:00 28,2 C 29,4 C 26,1 C 45 % 1015,2 hPa 0,0 l/m 2 min 0 min 940 W/m 6,8 km/h (2 Bft) 95,74 %
19.07.2018 14:02 28,3 C 28,9 C 26,1 C 45 % 1015,2 hPa 0,0 l/m 2 min 0 min 931 W/m 15,8 km/h (3 Bft) 97,83 %
19.07.2018 14:04 28,3 C 28,9 C 26,7 C 44 % 1015,2 hPa 0,0 l/m 2 min 0 min 919 W/m 11,3 km/h (2 Bft) 97,87 %
19.07.2018 14:06 28,3 C 28,9 C 26,1 C 44 % 1015,2 hPa 0,0 l/m 2 min 0 min 917 W/m 9,0 km/h (2 Bft) 97,92 %
19.07.2018 14:08 28,3 C 28,9 C 26,1 C 43 % 1015,2 hPa 0,0 l/m 2 min 0 min 926 W/m 4,5 km/h (1 Bft) 97,87 %
19.07.2018 14:10 28,3 C 28,3 C 26,1 C 43 % 1015,1 hPa 0,0 l/m 2 min 0 min 935 W/m 6,8 km/h (2 Bft) 95,74 %
19.07.2018 14:12 28,3 C 28,3 C 26,1 C 45 % 1015,2 hPa 0,0 l/m 2 min 0 min 931 W/m 9,0 km/h (2 Bft) 93,62 %
19.07.2018 14:14 28,3 C 28,3 C 26,1 C 43 % 1015,1 hPa 0,0 l/m 2 min 0 min 915 W/m 6,8 km/h (2 Bft) 95,65 %
19.07.2018 14:16 28,3 C 28,9 C 26,1 C 44 % 1015,1 hPa 0,0 l/m 2 min 0 min 931 W/m 13,5 km/h (3 Bft) 95,74 %
19.07.2018 14:18 28,3 C 28,9 C 26,1 C 44 % 1015,1 hPa 0,0 l/m 2 min 0 min 948 W/m 11,3 km/h (2 Bft) 95,74 %
19.07.2018 14:20 28,4 C 28,9 C 26,1 C 45 % 1015,0 hPa 0,0 l/m 2 min 0 min 943 W/m 13,5 km/h (3 Bft) 95,74 %
19.07.2018 14:22 28,4 C 28,9 C 26,1 C 46 % 1015,1 hPa 0,0 l/m 2 min 0 min 941 W/m 9,0 km/h (2 Bft) 95,74 %
19.07.2018 14:24 28,4 C 28,3 C 26,1 C 44 % 1015,0 hPa 0,0 l/m 2 min 0 min 957 W/m 15,8 km/h (3 Bft) 97,87 %
19.07.2018 14:26 28,4 C 28,9 C 26,1 C 46 % 1015,0 hPa 0,0 l/m 2 min 0 min 987 W/m 6,8 km/h (2 Bft) 91,30 %
19.07.2018 14:28 28,4 C 29,4 C 26,1 C 47 % 1015,0 hPa 0,0 l/m 2 min 0 min 990 W/m 6,8 km/h (2 Bft) 93,62 %
19.07.2018 14:30 28,4 C 29,4 C 26,1 C 45 % 1015,0 hPa 0,0 l/m 2 min 0 min 952 W/m 15,8 km/h (3 Bft) 93,62 %
19.07.2018 14:32 28,5 C 29,4 C 26,1 C 45 % 1015,0 hPa 0,0 l/m 2 min 0 min 958 W/m 15,8 km/h (3 Bft) 93,62 %
19.07.2018 14:34 28,5 C 28,9 C 26,1 C 44 % 1015,0 hPa 0,0 l/m 2 min 0 min 752 W/m 18,0 km/h (3 Bft) 91,49 %
19.07.2018 14:36 28,5 C 28,3 C 26,1 C 43 % 1015,0 hPa 0,0 l/m 0 min 0 min 289 W/m 13,5 km/h (3 Bft) 93,62 %
19.07.2018 14:38 28,4 C 27,8 C 25,6 C 43 % 1014,9 hPa 0,0 l/m 0 min 0 min 288 W/m 9,0 km/h (2 Bft) 93,48 %
19.07.2018 14:40 28,4 C 28,3 C 25,6 C 44 % 1014,9 hPa 0,0 l/m 2 min 0 min 744 W/m 6,8 km/h (2 Bft) 93,62 %
19.07.2018 14:42 28,4 C 28,3 C 25,6 C 43 % 1015,0 hPa 0,0 l/m 2 min 0 min 661 W/m 11,3 km/h (2 Bft) 91,49 %
19.07.2018 14:44 28,4 C 28,3 C 25,6 C 43 % 1015,0 hPa 0,0 l/m 0 min 0 min 378 W/m 2,3 km/h (1 Bft) 93,62 %
19.07.2018 14:46 28,4 C 28,3 C 25,6 C 45 % 1014,9 hPa 0,0 l/m 2 min 0 min 787 W/m 4,5 km/h (1 Bft) 93,62 %
19.07.2018 14:48 28,4 C 28,9 C 25,6 C 46 % 1015,0 hPa 0,0 l/m 2 min 0 min 892 W/m 6,8 km/h (2 Bft) 95,74 %
19.07.2018 14:50 28,4 C 28,9 C 25,6 C 46 % 1014,9 hPa 0,0 l/m 2 min 0 min 913 W/m 4,5 km/h (1 Bft) 95,65 %
19.07.2018 14:52 28,4 C 28,9 C 25,6 C 45 % 1014,9 hPa 0,0 l/m 2 min 0 min 929 W/m 9,0 km/h (2 Bft) 95,74 %
19.07.2018 14:54 28,4 C 28,9 C 26,1 C 44 % 1014,9 hPa 0,0 l/m 2 min 0 min 939 W/m 11,3 km/h (2 Bft) 93,62 %
19.07.2018 14:56 28,4 C 28,9 C 26,1 C 44 % 1014,8 hPa 0,0 l/m 2 min 0 min 933 W/m 9,0 km/h (2 Bft) 93,62 %
19.07.2018 14:58 28,4 C 29,4 C 26,7 C 46 % 1014,9 hPa 0,0 l/m 2 min 0 min 917 W/m 13,5 km/h (3 Bft) 95,74 %
19.07.2018 15:00 28,4 C 29,4 C 26,7 C 45 % 1014,9 hPa 0,0 l/m 2 min 0 min 917 W/m 11,3 km/h (2 Bft) 95,74 %
19.07.2018 15:02 28,5 C 29,4 C 26,7 C 45 % 1014,9 hPa 0,0 l/m 2 min 0 min 880 W/m 9,0 km/h (2 Bft) 95,65 %
19.07.2018 15:04 28,5 C 29,4 C 26,7 C 45 % 1014,8 hPa 0,0 l/m 2 min 0 min 719 W/m 4,5 km/h (1 Bft) 93,62 %
19.07.2018 15:06 28,6 C 28,9 C 26,1 C 45 % 1014,8 hPa 0,0 l/m 2 min 0 min 626 W/m 6,8 km/h (2 Bft) 95,83 %
19.07.2018 15:08 28,6 C 28,9 C 26,1 C 44 % 1014,8 hPa 0,0 l/m 2 min 0 min 845 W/m 4,5 km/h (1 Bft) 95,74 %
19.07.2018 15:10 28,6 C 28,9 C 26,7 C 43 % 1014,9 hPa 0,0 l/m 2 min 0 min 844 W/m 9,0 km/h (2 Bft) 95,74 %
19.07.2018 15:12 28,6 C 28,9 C 26,7 C 43 % 1014,9 hPa 0,0 l/m 2 min 0 min 879 W/m 11,3 km/h (2 Bft) 95,65 %
19.07.2018 15:14 28,6 C 28,9 C 26,7 C 43 % 1014,9 hPa 0,0 l/m 2 min 0 min 876 W/m 11,3 km/h (2 Bft) 93,62 %
19.07.2018 15:16 28,7 C 29,4 C 26,7 C 46 % 1014,9 hPa 0,0 l/m 2 min 0 min 876 W/m 6,8 km/h (2 Bft) 93,62 %
19.07.2018 15:18 28,7 C 28,9 C 26,1 C 43 % 1014,9 hPa 0,0 l/m 2 min 0 min 862 W/m 9,0 km/h (2 Bft) 100,00 %
19.07.2018 15:20 28,7 C 28,9 C 26,1 C 43 % 1014,8 hPa 0,0 l/m 2 min 0 min 856 W/m 11,3 km/h (2 Bft) 100,00 %
19.07.2018 15:22 28,7 C 28,9 C 26,1 C 42 % 1014,8 hPa 0,0 l/m 2 min 0 min 409 W/m 9,0 km/h (2 Bft) 95,83 %
19.07.2018 15:24 28,7 C 28,9 C 26,1 C 45 % 1014,8 hPa 0,0 l/m 0 min 0 min 287 W/m 4,5 km/h (1 Bft) 97,14 %
19.07.2018 15:26 28,7 C 28,3 C 25,6 C 45 % 1014,8 hPa 0,0 l/m 0 min 0 min 274 W/m 4,5 km/h (1 Bft) 100,00 %
19.07.2018 15:28 28,7 C 27,8 C 26,1 C 42 % 1014,8 hPa 0,0 l/m 0 min 0 min 307 W/m 11,3 km/h (2 Bft) 97,83 %
19.07.2018 15:30 28,7 C 28,3 C 26,1 C 42 % 1014,8 hPa 0,0 l/m 2 min 0 min 621 W/m 4,5 km/h (1 Bft) 100,00 %
19.07.2018 15:32 28,7 C 28,9 C 25,6 C 44 % 1014,8 hPa 0,0 l/m 2 min 0 min 832 W/m 6,8 km/h (2 Bft) 97,14 %
19.07.2018 15:34 28,7 C 28,9 C 25,6 C 44 % 1014,7 hPa 0,0 l/m 2 min 0 min 824 W/m 9,0 km/h (2 Bft) 100,00 %
19.07.2018 15:36 28,7 C 29,4 C 25,6 C 45 % 1014,7 hPa 0,0 l/m 2 min 0 min 809 W/m 9,0 km/h (2 Bft) 100,00 %
19.07.2018 15:38 28,6 C 28,9 C 25,6 C 45 % 1014,7 hPa 0,0 l/m 2 min 0 min 449 W/m 4,5 km/h (1 Bft) 100,00 %
19.07.2018 15:40 28,6 C 28,9 C 25,6 C 44 % 1014,7 hPa 0,0 l/m 2 min 0 min 630 W/m 9,0 km/h (2 Bft) 100,00 %
19.07.2018 15:42 28,6 C 28,9 C 25,6 C 44 % 1014,6 hPa 0,0 l/m 2 min 0 min 691 W/m 6,8 km/h (2 Bft) 100,00 %
19.07.2018 15:44 28,6 C 28,3 C 26,1 C 43 % 1014,6 hPa 0,0 l/m 2 min 0 min 428 W/m 4,5 km/h (1 Bft) 97,87 %
19.07.2018 15:46 28,6 C 28,9 C 26,1 C 44 % 1014,6 hPa 0,0 l/m 0 min 0 min 294 W/m 4,5 km/h (1 Bft) 100,00 %
19.07.2018 15:48 28,6 C 29,4 C 26,7 C 43 % 1014,6 hPa 0,0 l/m 2 min 0 min 833 W/m 9,0 km/h (2 Bft) 100,00 %
19.07.2018 15:50 28,6 C 29,4 C 26,1 C 43 % 1014,6 hPa 0,0 l/m 2 min 0 min 788 W/m 6,8 km/h (2 Bft) 100,00 %
19.07.2018 15:52 28,6 C 29,4 C 26,1 C 43 % 1014,6 hPa 0,0 l/m 2 min 0 min 704 W/m 6,8 km/h (2 Bft) 100,00 %
19.07.2018 15:54 28,6 C 29,4 C 26,1 C 43 % 1014,6 hPa 0,0 l/m 2 min 0 min 460 W/m 9,0 km/h (2 Bft) 100,00 %
19.07.2018 15:56 28,6 C 28,9 C 26,1 C 45 % 1014,6 hPa 0,0 l/m 0 min 0 min 287 W/m 6,8 km/h (2 Bft) 100,00 %
19.07.2018 15:58 28,6 C 30,6 C 26,1 C 45 % 1014,6 hPa 0,0 l/m 2 min 0 min 496 W/m 6,8 km/h (2 Bft) 100,00 %
19.07.2018 16:00 28,6 C 30,0 C 26,1 C 44 % 1014,6 hPa 0,0 l/m 2 min 0 min 473 W/m 6,8 km/h (2 Bft) 100,00 %
19.07.2018 16:02 28,7 C 28,9 C 25,6 C 43 % 1014,6 hPa 0,0 l/m 0 min 0 min 249 W/m 9,0 km/h (2 Bft) 100,00 %
19.07.2018 16:04 28,6 C 28,3 C 25,6 C 44 % 1014,6 hPa 0,0 l/m 0 min 0 min 255 W/m 11,3 km/h (2 Bft) 100,00 %
19.07.2018 16:06 28,6 C 28,3 C 25,6 C 45 % 1014,5 hPa 0,0 l/m 0 min 0 min 270 W/m 6,8 km/h (2 Bft) 100,00 %
19.07.2018 16:08 28,6 C 30,0 C 25,6 C 45 % 1014,5 hPa 0,0 l/m 0 min 0 min 297 W/m 4,5 km/h (1 Bft) 100,00 %
19.07.2018 16:10 28,6 C 30,6 C 25,6 C 43 % 1014,5 hPa 0,0 l/m 2 min 0 min 726 W/m 2,3 km/h (1 Bft) 100,00 %
19.07.2018 16:12 28,6 C 30,0 C 25,6 C 43 % 1014,5 hPa 0,0 l/m 2 min 0 min 795 W/m 11,3 km/h (2 Bft) 100,00 %
19.07.2018 16:14 28,6 C 30,6 C 26,1 C 46 % 1014,5 hPa 0,0 l/m 2 min 0 min 795 W/m 4,5 km/h (1 Bft) 100,00 %
19.07.2018 16:16 28,6 C 30,6 C 26,1 C 45 % 1014,5 hPa 0,0 l/m 2 min 0 min 404 W/m 4,5 km/h (1 Bft) 100,00 %
19.07.2018 16:18 28,6 C 31,1 C 26,1 C 45 % 1014,4 hPa 0,0 l/m 2 min 0 min 631 W/m 6,8 km/h (2 Bft) 100,00 %
19.07.2018 16:20 28,6 C 31,7 C 26,1 C 45 % 1014,5 hPa 0,0 l/m 2 min 0 min 791 W/m 9,0 km/h (2 Bft) 100,00 %
19.07.2018 16:22 28,7 C 32,8 C 26,7 C 46 % 1014,5 hPa 0,0 l/m 2 min 0 min 816 W/m 6,8 km/h (2 Bft) 97,87 %
19.07.2018 16:24 28,7 C 32,2 C 26,7 C 45 % 1014,5 hPa 0,0 l/m 2 min 0 min 792 W/m 6,8 km/h (2 Bft) 100,00 %
19.07.2018 16:26 28,7 C 30,6 C 26,7 C 42 % 1014,5 hPa 0,0 l/m 2 min 0 min 697 W/m 9,0 km/h (2 Bft) 100,00 %
19.07.2018 16:28 28,8 C 29,4 C 26,7 C 43 % 1014,5 hPa 0,0 l/m 2 min 0 min 476 W/m 9,0 km/h (2 Bft) 100,00 %
19.07.2018 16:30 28,8 C 28,9 C 26,1 C 42 % 1014,5 hPa 0,0 l/m 0 min 0 min 287 W/m 9,0 km/h (2 Bft) 100,00 %
19.07.2018 16:32 28,8 C 28,3 C 26,1 C 43 % 1014,5 hPa 0,0 l/m 0 min 0 min 322 W/m 6,8 km/h (2 Bft) 100,00 %
19.07.2018 16:34 28,8 C 28,3 C 25,6 C 44 % 1014,5 hPa 0,0 l/m 0 min 0 min 251 W/m 6,8 km/h (2 Bft) 100,00 %
19.07.2018 16:36 28,7 C 28,3 C 25,6 C 42 % 1014,5 hPa 0,0 l/m 0 min 0 min 283 W/m 9,0 km/h (2 Bft) 97,83 %
19.07.2018 16:38 28,7 C 30,0 C 25,6 C 46 % 1014,4 hPa 0,0 l/m 2 min 0 min 494 W/m 2,3 km/h (1 Bft) 100,00 %
19.07.2018 16:40 28,7 C 30,0 C 25,6 C 45 % 1014,4 hPa 0,0 l/m 2 min 0 min 564 W/m 2,3 km/h (1 Bft) 97,87 %
19.07.2018 16:42 28,7 C 30,0 C 25,6 C 43 % 1014,4 hPa 0,0 l/m 2 min 0 min 608 W/m 4,5 km/h (1 Bft) 97,87 %
19.07.2018 16:44 28,7 C 31,1 C 26,1 C 45 % 1014,4 hPa 0,0 l/m 2 min 0 min 763 W/m 4,5 km/h (1 Bft) 97,87 %
19.07.2018 16:46 28,7 C 32,2 C 26,1 C 45 % 1014,4 hPa 0,0 l/m 2 min 0 min 775 W/m 4,5 km/h (1 Bft) 97,87 %
19.07.2018 16:48 28,7 C 32,2 C 26,7 C 46 % 1014,4 hPa 0,0 l/m 2 min 0 min 753 W/m 4,5 km/h (1 Bft) 95,65 %
19.07.2018 16:50 28,8 C 32,8 C 26,7 C 45 % 1014,4 hPa 0,0 l/m 2 min 0 min 711 W/m 9,0 km/h (2 Bft) 95,74 %
19.07.2018 16:52 28,8 C 32,2 C 26,7 C 44 % 1014,4 hPa 0,0 l/m 2 min 0 min 716 W/m 6,8 km/h (2 Bft) 97,87 %
19.07.2018 16:54 28,8 C 32,2 C 26,7 C 46 % 1014,3 hPa 0,0 l/m 2 min 0 min 705 W/m 4,5 km/h (1 Bft) 97,87 %
19.07.2018 16:56 28,9 C 31,7 C 26,7 C 44 % 1014,3 hPa 0,0 l/m 2 min 0 min 683 W/m 4,5 km/h (1 Bft) 97,87 %
19.07.2018 16:58 28,9 C 31,1 C 26,1 C 44 % 1014,3 hPa 0,0 l/m 2 min 0 min 398 W/m 6,8 km/h (2 Bft) 97,87 %
19.07.2018 17:00 28,9 C 31,1 C 26,1 C 45 % 1014,2 hPa 0,0 l/m 2 min 0 min 420 W/m 4,5 km/h (1 Bft) 97,83 %
19.07.2018 17:02 28,9 C 31,7 C 26,1 C 45 % 1014,2 hPa 0,0 l/m 2 min 0 min 507 W/m 4,5 km/h (1 Bft) 95,83 %
19.07.2018 17:04 28,9 C 31,1 C 26,1 C 44 % 1014,2 hPa 0,0 l/m 2 min 0 min 576 W/m 6,8 km/h (2 Bft) 97,87 %
19.07.2018 17:06 28,9 C 30,0 C 26,1 C 42 % 1014,2 hPa 0,0 l/m 2 min 0 min 537 W/m 4,5 km/h (1 Bft) 95,74 %
19.07.2018 17:08 28,9 C 30,6 C 26,1 C 46 % 1014,2 hPa 0,0 l/m 2 min 0 min 386 W/m 9,0 km/h (2 Bft) 95,65 %
19.07.2018 17:10 28,9 C 30,0 C 26,1 C 43 % 1014,2 hPa 0,0 l/m 2 min 0 min 497 W/m 9,0 km/h (2 Bft) 97,87 %
19.07.2018 17:12 29,0 C 30,0 C 26,1 C 42 % 1014,2 hPa 0,0 l/m 2 min 0 min 584 W/m 9,0 km/h (2 Bft) 97,87 %
19.07.2018 17:14 29,0 C 30,0 C 26,1 C 43 % 1014,1 hPa 0,0 l/m 2 min 0 min 565 W/m 6,8 km/h (2 Bft) 97,87 %
19.07.2018 17:16 29,0 C 30,0 C 26,7 C 43 % 1014,1 hPa 0,0 l/m 2 min 0 min 602 W/m 9,0 km/h (2 Bft) 97,87 %
19.07.2018 17:18 29,0 C 30,0 C 26,7 C 43 % 1014,2 hPa 0,0 l/m 2 min 0 min 632 W/m 6,8 km/h (2 Bft) 97,87 %
19.07.2018 17:20 29,1 C 30,0 C 26,7 C 44 % 1014,1 hPa 0,0 l/m 2 min 0 min 572 W/m 9,0 km/h (2 Bft) 97,83 %
19.07.2018 17:22 29,1 C 30,0 C 26,7 C 43 % 1014,1 hPa 0,0 l/m 2 min 0 min 536 W/m 9,0 km/h (2 Bft) 97,87 %
19.07.2018 17:24 29,1 C 30,0 C 26,7 C 44 % 1014,1 hPa 0,0 l/m 2 min 0 min 497 W/m 4,5 km/h (1 Bft) 95,74 %
19.07.2018 17:26 29,1 C 29,4 C 26,7 C 42 % 1014,1 hPa 0,0 l/m 2 min 0 min 525 W/m 4,5 km/h (1 Bft) 97,87 %
19.07.2018 17:28 29,1 C 29,4 C 26,7 C 43 % 1014,0 hPa 0,0 l/m 2 min 0 min 544 W/m 2,3 km/h (1 Bft) 95,74 %
19.07.2018 17:30 29,1 C 30,0 C 26,7 C 44 % 1014,0 hPa 0,0 l/m 2 min 0 min 576 W/m 6,8 km/h (2 Bft) 100,00 %
19.07.2018 17:32 29,1 C 30,0 C 26,7 C 43 % 1014,1 hPa 0,0 l/m 2 min 0 min 467 W/m 6,8 km/h (2 Bft) 100,00 %
19.07.2018 17:34 29,1 C 29,4 C 26,7 C 43 % 1014,1 hPa 0,0 l/m 2 min 0 min 645 W/m 4,5 km/h (1 Bft) 97,87 %
19.07.2018 17:36 29,1 C 30,0 C 26,7 C 43 % 1014,0 hPa 0,0 l/m 2 min 0 min 620 W/m 9,0 km/h (2 Bft) 97,87 %
19.07.2018 17:38 29,1 C 29,4 C 26,7 C 42 % 1014,0 hPa 0,0 l/m 2 min 0 min 529 W/m 6,8 km/h (2 Bft) 95,74 %
19.07.2018 17:40 29,1 C 29,4 C 26,1 C 44 % 1013,9 hPa 0,0 l/m 2 min 0 min 332 W/m 9,0 km/h (2 Bft) 100,00 %
19.07.2018 17:42 29,0 C 30,0 C 26,7 C 43 % 1014,0 hPa 0,0 l/m 2 min 0 min 421 W/m 4,5 km/h (1 Bft) 97,87 %
19.07.2018 17:44 29,0 C 29,4 C 26,7 C 42 % 1013,9 hPa 0,0 l/m 2 min 0 min 638 W/m 4,5 km/h (1 Bft) 97,83 %
19.07.2018 17:46 29,0 C 29,4 C 26,1 C 42 % 1013,9 hPa 0,0 l/m 2 min 0 min 630 W/m 4,5 km/h (1 Bft) 95,74 %
19.07.2018 17:48 29,0 C 29,4 C 26,7 C 42 % 1013,9 hPa 0,0 l/m 2 min 0 min 637 W/m 6,8 km/h (2 Bft) 100,00 %
19.07.2018 17:50 29,1 C 29,4 C 26,7 C 41 % 1013,9 hPa 0,0 l/m 2 min 0 min 583 W/m 4,5 km/h (1 Bft) 100,00 %
19.07.2018 17:52 29,1 C 29,4 C 27,2 C 42 % 1013,8 hPa 0,0 l/m 2 min 0 min 607 W/m 6,8 km/h (2 Bft) 97,87 %
19.07.2018 17:54 29,1 C 30,0 C 27,2 C 44 % 1013,8 hPa 0,0 l/m 2 min 0 min 582 W/m 4,5 km/h (1 Bft) 95,65 %
19.07.2018 17:56 29,1 C 30,0 C 27,2 C 44 % 1013,8 hPa 0,0 l/m 2 min 0 min 523 W/m 6,8 km/h (2 Bft) 95,74 %
19.07.2018 17:58 29,1 C 30,0 C 26,7 C 45 % 1013,9 hPa 0,0 l/m 2 min 0 min 526 W/m 4,5 km/h (1 Bft) 95,74 %
19.07.2018 18:00 29,1 C 30,0 C 26,7 C 44 % 1013,8 hPa 0,0 l/m 2 min 0 min 533 W/m 6,8 km/h (2 Bft) 95,74 %
19.07.2018 18:02 29,1 C 30,0 C 26,7 C 44 % 1013,9 hPa 0,0 l/m 2 min 0 min 463 W/m 9,0 km/h (2 Bft) 95,74 %
19.07.2018 18:04 29,1 C 29,4 C 26,7 C 41 % 1013,8 hPa 0,0 l/m 2 min 0 min 436 W/m 9,0 km/h (2 Bft) 95,74 %
19.07.2018 18:08 29,1 C 29,4 C 26,7 C 42 % 1013,8 hPa 0,0 l/m 4 min 0 min 498 W/m 6,8 km/h (2 Bft) 95,70 %
19.07.2018 18:10 29,1 C 29,4 C 26,7 C 43 % 1013,8 hPa 0,0 l/m 2 min 0 min 390 W/m 11,3 km/h (2 Bft) 95,74 %
19.07.2018 18:12 29,1 C 28,3 C 26,1 C 43 % 1013,8 hPa 0,0 l/m 2 min 0 min 286 W/m 6,8 km/h (2 Bft) 95,74 %
19.07.2018 18:14 29,0 C 27,2 C 25,6 C 44 % 1013,8 hPa 0,0 l/m 2 min 0 min 257 W/m 9,0 km/h (2 Bft) 95,74 %
19.07.2018 18:16 29,0 C 26,1 C 24,4 C 46 % 1013,8 hPa 0,0 l/m 2 min 0 min 237 W/m 9,0 km/h (2 Bft) 93,62 %
19.07.2018 18:18 28,9 C 26,1 C 23,9 C 43 % 1013,7 hPa 0,0 l/m 2 min 0 min 264 W/m 6,8 km/h (2 Bft) 95,65 %
19.07.2018 18:20 28,8 C 25,0 C 24,4 C 43 % 1013,7 hPa 0,0 l/m 2 min 0 min 302 W/m 4,5 km/h (1 Bft) 95,74 %
19.07.2018 18:22 28,7 C 25,0 C 22,8 C 46 % 1013,7 hPa 0,0 l/m 2 min 0 min 245 W/m 4,5 km/h (1 Bft) 95,74 %
19.07.2018 18:24 28,6 C 25,0 C 22,2 C 46 % 1013,7 hPa 0,0 l/m 2 min 0 min 230 W/m 4,5 km/h (1 Bft) 95,74 %
19.07.2018 18:26 28,5 C 25,0 C 20,6 C 46 % 1013,7 hPa 0,0 l/m 2 min 0 min 275 W/m 4,5 km/h (1 Bft) 93,62 %
19.07.2018 18:28 28,4 C 25,6 C 20,6 C 45 % 1013,7 hPa 0,0 l/m 2 min 0 min 233 W/m 6,8 km/h (2 Bft) 95,74 %
19.07.2018 18:30 28,3 C 25,6 C 20,6 C 45 % 1013,6 hPa 0,0 l/m 2 min 0 min 226 W/m 6,8 km/h (2 Bft) 95,65 %
19.07.2018 18:32 28,3 C 25,6 C 21,1 C 47 % 1013,6 hPa 0,0 l/m 2 min 0 min 277 W/m 4,5 km/h (1 Bft) 95,74 %
19.07.2018 18:34 28,2 C 25,6 C 22,8 C 46 % 1013,7 hPa 0,0 l/m 2 min 0 min 466 W/m 9,0 km/h (2 Bft) 95,74 %
19.07.2018 18:36 28,1 C 25,0 C 22,8 C 46 % 1013,6 hPa 0,0 l/m 2 min 0 min 439 W/m 4,5 km/h (1 Bft) 95,74 %
19.07.2018 18:38 28,1 C 25,0 C 23,3 C 47 % 1013,5 hPa 0,0 l/m 2 min 0 min 426 W/m 6,8 km/h (2 Bft) 95,74 %
19.07.2018 18:40 28,0 C 24,4 C 23,9 C 47 % 1013,5 hPa 0,0 l/m 2 min 0 min 324 W/m 9,0 km/h (2 Bft) 95,74 %
19.07.2018 18:42 27,9 C 23,9 C 23,9 C 46 % 1013,5 hPa 0,0 l/m 2 min 0 min 292 W/m 6,8 km/h (2 Bft) 95,65 %
19.07.2018 18:44 27,9 C 23,9 C 22,2 C 46 % 1013,5 hPa 0,0 l/m 2 min 0 min 254 W/m 6,8 km/h (2 Bft) 95,74 %
19.07.2018 18:46 27,8 C 25,0 C 21,7 C 47 % 1013,5 hPa 0,0 l/m 0 min 0 min 152 W/m 4,5 km/h (1 Bft) 95,74 %
19.07.2018 18:48 27,8 C 25,0 C 20,6 C 48 % 1013,4 hPa 0,0 l/m 0 min 0 min 140 W/m 4,5 km/h (1 Bft) 95,74 %
19.07.2018 18:50 27,7 C 23,9 C 20,0 C 46 % 1013,4 hPa 0,0 l/m 0 min 0 min 134 W/m 2,3 km/h (1 Bft) 93,62 %
19.07.2018 18:52 27,7 C 22,8 C 18,9 C 49 % 1013,4 hPa 0,0 l/m 0 min 0 min 142 W/m 4,5 km/h (1 Bft) 95,74 %
19.07.2018 18:54 27,6 C 22,8 C 18,9 C 48 % 1013,4 hPa 0,0 l/m 0 min 0 min 140 W/m 4,5 km/h (1 Bft) 95,65 %
19.07.2018 18:56 27,5 C 22,8 C 18,3 C 47 % 1013,4 hPa 0,0 l/m 0 min 0 min 144 W/m 4,5 km/h (1 Bft) 97,87 %
19.07.2018 18:58 27,4 C 22,8 C 17,8 C 49 % 1013,5 hPa 0,0 l/m 0 min 0 min 152 W/m 4,5 km/h (1 Bft) 97,87 %
19.07.2018 19:00 27,4 C 23,3 C 17,8 C 50 % 1013,4 hPa 0,0 l/m 0 min 0 min 181 W/m 4,5 km/h (1 Bft) 100,00 %
19.07.2018 19:02 27,3 C 23,9 C 17,8 C 51 % 1013,4 hPa 0,0 l/m 2 min 0 min 231 W/m 4,5 km/h (1 Bft) 100,00 %
19.07.2018 19:04 27,3 C 23,9 C 17,8 C 48 % 1013,4 hPa 0,0 l/m 2 min 0 min 211 W/m 4,5 km/h (1 Bft) 95,24 %
19.07.2018 19:06 27,2 C 23,9 C 17,8 C 51 % 1013,4 hPa 0,0 l/m 2 min 0 min 195 W/m 6,8 km/h (2 Bft) 97,92 %
19.07.2018 19:08 27,1 C 24,4 C 18,3 C 48 % 1013,4 hPa 0,0 l/m 2 min 0 min 204 W/m 6,8 km/h (2 Bft) 100,00 %
19.07.2018 19:10 27,1 C 24,4 C 18,3 C 49 % 1013,4 hPa 0,0 l/m 2 min 0 min 214 W/m 9,0 km/h (2 Bft) 100,00 %
19.07.2018 19:12 27,0 C 25,0 C 18,9 C 50 % 1013,4 hPa 0,0 l/m 2 min 0 min 212 W/m 9,0 km/h (2 Bft) 100,00 %
19.07.2018 19:14 26,9 C 25,0 C 18,9 C 49 % 1013,4 hPa 0,0 l/m 2 min 0 min 225 W/m 4,5 km/h (1 Bft) 100,00 %
19.07.2018 19:16 26,9 C 25,0 C 18,9 C 48 % 1013,3 hPa 0,0 l/m 2 min 0 min 231 W/m 6,8 km/h (2 Bft) 97,87 %
19.07.2018 19:18 26,8 C 25,6 C 18,9 C 51 % 1013,3 hPa 0,0 l/m 2 min 0 min 260 W/m 4,5 km/h (1 Bft) 100,00 %
19.07.2018 19:20 26,8 C 25,6 C 18,3 C 51 % 1013,3 hPa 0,0 l/m 2 min 0 min 338 W/m 6,8 km/h (2 Bft) 100,00 %
19.07.2018 19:22 26,8 C 25,6 C 18,3 C 49 % 1013,3 hPa 0,0 l/m 2 min 0 min 366 W/m 9,0 km/h (2 Bft) 97,83 %
19.07.2018 19:24 26,8 C 24,4 C 18,9 C 50 % 1013,3 hPa 0,0 l/m 2 min 0 min 358 W/m 6,8 km/h (2 Bft) 100,00 %
19.07.2018 19:26 26,7 C 23,9 C 18,3 C 49 % 1013,3 hPa 0,0 l/m 2 min 0 min 312 W/m 6,8 km/h (2 Bft) 97,87 %
19.07.2018 19:28 26,7 C 23,9 C 18,3 C 51 % 1013,3 hPa 0,0 l/m 2 min 0 min 183 W/m 6,8 km/h (2 Bft) 95,74 %
19.07.2018 19:30 26,7 C 22,2 C 17,8 C 52 % 1013,3 hPa 0,0 l/m 2 min 0 min 168 W/m 4,5 km/h (1 Bft) 97,87 %
19.07.2018 19:32 26,7 C 22,2 C 17,8 C 50 % 1013,3 hPa 0,0 l/m 2 min 0 min 166 W/m 9,0 km/h (2 Bft) 97,87 %
19.07.2018 19:34 26,7 C 22,2 C 17,8 C 50 % 1013,3 hPa 0,0 l/m 2 min 0 min 183 W/m 9,0 km/h (2 Bft) 97,83 %
19.07.2018 19:36 26,6 C 23,9 C 18,3 C 49 % 1013,3 hPa 0,0 l/m 2 min 0 min 237 W/m 13,5 km/h (3 Bft) 97,87 %
19.07.2018 19:38 26,6 C 24,4 C 18,3 C 48 % 1013,3 hPa 0,0 l/m 2 min 0 min 238 W/m 15,8 km/h (3 Bft) 97,87 %
19.07.2018 19:40 26,6 C 25,0 C 18,9 C 48 % 1013,3 hPa 0,0 l/m 2 min 0 min 228 W/m 11,3 km/h (2 Bft) 97,87 %
19.07.2018 19:42 26,6 C 25,6 C 18,3 C 48 % 1013,3 hPa 0,0 l/m 2 min 0 min 211 W/m 11,3 km/h (2 Bft) 95,74 %
19.07.2018 19:44 26,5 C 24,4 C 17,8 C 49 % 1013,3 hPa 0,0 l/m 2 min 0 min 242 W/m 9,0 km/h (2 Bft) 95,74 %
19.07.2018 19:46 26,5 C 22,2 C 18,9 C 49 % 1013,3 hPa 0,0 l/m 2 min 0 min 176 W/m 9,0 km/h (2 Bft) 97,83 %
19.07.2018 19:48 26,5 C 22,2 C 18,9 C 50 % 1013,3 hPa 0,0 l/m 0 min 0 min 114 W/m 4,5 km/h (1 Bft) 97,87 %
19.07.2018 19:50 26,5 C 22,2 C 18,9 C 52 % 1013,3 hPa 0,0 l/m 0 min 0 min 108 W/m 6,8 km/h (2 Bft) 97,87 %
19.07.2018 19:52 26,4 C 22,2 C 17,8 C 51 % 1013,3 hPa 0,0 l/m 0 min 0 min 105 W/m 9,0 km/h (2 Bft) 97,87 %
19.07.2018 19:54 26,4 C 22,2 C 18,3 C 49 % 1013,3 hPa 0,0 l/m 0 min 0 min 104 W/m 13,5 km/h (3 Bft) 97,87 %
19.07.2018 19:56 26,4 C 21,7 C 18,3 C 50 % 1013,2 hPa 0,0 l/m 0 min 0 min 102 W/m 9,0 km/h (2 Bft) 95,65 %
19.07.2018 19:58 26,3 C 21,7 C 18,9 C 49 % 1013,2 hPa 0,0 l/m 0 min 0 min 100 W/m 6,8 km/h (2 Bft) 97,87 %
19.07.2018 20:00 26,3 C 21,7 C 18,3 C 49 % 1013,3 hPa 0,0 l/m 0 min 0 min 98 W/m 9,0 km/h (2 Bft) 97,87 %
19.07.2018 20:02 26,3 C 20,0 C 18,9 C 50 % 1013,3 hPa 0,0 l/m 0 min 0 min 96 W/m 9,0 km/h (2 Bft) 95,74 %
19.07.2018 20:04 26,2 C 19,4 C 18,3 C 51 % 1013,2 hPa 0,0 l/m 0 min 0 min 93 W/m 9,0 km/h (2 Bft) 97,87 %
19.07.2018 20:06 26,2 C 20,0 C 18,9 C 50 % 1013,2 hPa 0,0 l/m 0 min 0 min 90 W/m 6,8 km/h (2 Bft) 97,92 %
19.07.2018 20:08 26,2 C 20,0 C 19,4 C 51 % 1013,2 hPa 0,0 l/m 0 min 0 min 88 W/m 4,5 km/h (1 Bft) 100,00 %
19.07.2018 20:10 26,1 C 21,1 C 21,1 C 49 % 1013,2 hPa 0,0 l/m 0 min 0 min 85 W/m 6,8 km/h (2 Bft) 97,87 %
19.07.2018 20:12 26,1 C 21,1 C 21,7 C 49 % 1013,3 hPa 0,0 l/m 0 min 0 min 83 W/m 9,0 km/h (2 Bft) 100,00 %
19.07.2018 20:14 26,0 C 22,2 C 21,7 C 49 % 1013,2 hPa 0,0 l/m 0 min 0 min 80 W/m 9,0 km/h (2 Bft) 100,00 %
19.07.2018 20:16 25,9 C 23,3 C 21,7 C 49 % 1013,2 hPa 0,0 l/m 0 min 0 min 77 W/m 6,8 km/h (2 Bft) 100,00 %
19.07.2018 20:18 25,9 C 23,9 C 21,7 C 50 % 1013,3 hPa 0,0 l/m 0 min 0 min 75 W/m 4,5 km/h (1 Bft) 100,00 %
19.07.2018 20:20 25,9 C 23,9 C 21,7 C 50 % 1013,2 hPa 0,0 l/m 0 min 0 min 72 W/m 6,8 km/h (2 Bft) 97,83 %
19.07.2018 20:22 25,9 C 23,9 C 21,7 C 50 % 1013,2 hPa 0,0 l/m 0 min 0 min 69 W/m 6,8 km/h (2 Bft) 100,00 %
19.07.2018 20:24 25,8 C 24,4 C 21,7 C 51 % 1013,2 hPa 0,0 l/m 0 min 0 min 66 W/m 9,0 km/h (2 Bft) 100,00 %
19.07.2018 20:26 25,8 C 24,4 C 22,2 C 50 % 1013,2 hPa 0,0 l/m 0 min 0 min 63 W/m 9,0 km/h (2 Bft) 100,00 %
19.07.2018 20:28 25,8 C 24,4 C 22,8 C 50 % 1013,2 hPa 0,0 l/m 0 min 0 min 61 W/m 6,8 km/h (2 Bft) 97,87 %
19.07.2018 20:30 25,8 C 24,4 C 22,8 C 51 % 1013,2 hPa 0,0 l/m 0 min 0 min 58 W/m 6,8 km/h (2 Bft) 100,00 %
19.07.2018 20:32 25,7 C 24,4 C 22,8 C 51 % 1013,3 hPa 0,0 l/m 0 min 0 min 55 W/m 9,0 km/h (2 Bft) 100,00 %
19.07.2018 20:34 25,7 C 24,4 C 22,8 C 51 % 1013,2 hPa 0,0 l/m 0 min 0 min 53 W/m 9,0 km/h (2 Bft) 100,00 %
19.07.2018 20:36 25,7 C 24,4 C 22,8 C 51 % 1013,2 hPa 0,0 l/m 0 min 0 min 50 W/m 9,0 km/h (2 Bft) 100,00 %
19.07.2018 20:38 25,7 C 24,4 C 23,3 C 51 % 1013,2 hPa 0,0 l/m 0 min 0 min 47 W/m 9,0 km/h (2 Bft) 100,00 %
19.07.2018 20:40 25,6 C 24,4 C 22,8 C 51 % 1013,2 hPa 0,0 l/m 0 min 0 min 45 W/m 11,3 km/h (2 Bft) 100,00 %
19.07.2018 20:42 25,6 C 22,8 C 22,2 C 52 % 1013,3 hPa 0,0 l/m 0 min 0 min 43 W/m 4,5 km/h (1 Bft) 100,00 %
19.07.2018 20:44 25,6 C 21,7 C 21,7 C 53 % 1013,3 hPa 0,0 l/m 0 min 0 min 41 W/m 9,0 km/h (2 Bft) 100,00 %
19.07.2018 20:46 25,6 C 21,7 C 21,1 C 53 % 1013,3 hPa 0,0 l/m 0 min 0 min 40 W/m 9,0 km/h (2 Bft) 100,00 %
19.07.2018 20:48 25,5 C 22,2 C 21,1 C 53 % 1013,3 hPa 0,0 l/m 0 min 0 min 39 W/m 9,0 km/h (2 Bft) 100,00 %
19.07.2018 20:50 25,5 C 22,2 C 20,6 C 54 % 1013,3 hPa 0,0 l/m 0 min 0 min 36 W/m 9,0 km/h (2 Bft) 100,00 %
19.07.2018 20:52 25,4 C 22,2 C 20,0 C 54 % 1013,3 hPa 0,0 l/m 0 min 0 min 34 W/m 9,0 km/h (2 Bft) 100,00 %
19.07.2018 20:54 25,4 C 21,7 C 19,4 C 54 % 1013,3 hPa 0,0 l/m 0 min 0 min 32 W/m 6,8 km/h (2 Bft) 100,00 %
19.07.2018 20:56 25,3 C 20,6 C 18,9 C 54 % 1013,4 hPa 0,0 l/m 0 min 0 min 31 W/m 6,8 km/h (2 Bft) 100,00 %
19.07.2018 20:58 25,3 C 19,4 C 18,3 C 54 % 1013,4 hPa 0,0 l/m 0 min 0 min 29 W/m 13,5 km/h (3 Bft) 100,00 %
19.07.2018 21:00 25,2 C 18,9 C 16,7 C 55 % 1013,4 hPa 0,0 l/m 0 min 0 min 27 W/m 2,3 km/h (1 Bft) 100,00 %
19.07.2018 21:02 25,1 C 19,4 C 16,7 C 55 % 1013,4 hPa 0,0 l/m 0 min 0 min 26 W/m 6,8 km/h (2 Bft) 95,74 %
19.07.2018 21:04 25,1 C 18,9 C 16,7 C 55 % 1013,4 hPa 0,0 l/m 0 min 0 min 25 W/m 6,8 km/h (2 Bft) 100,00 %
19.07.2018 21:06 25,1 C 18,9 C 16,7 C 55 % 1013,5 hPa 0,0 l/m 0 min 0 min 24 W/m 9,0 km/h (2 Bft) 97,83 %
19.07.2018 21:08 25,0 C 18,9 C 16,7 C 56 % 1013,5 hPa 0,0 l/m 0 min 0 min 22 W/m 4,5 km/h (1 Bft) 97,87 %
19.07.2018 21:10 24,9 C 18,9 C 16,7 C 56 % 1013,6 hPa 0,0 l/m 0 min 0 min 21 W/m 4,5 km/h (1 Bft) 97,87 %
19.07.2018 21:12 24,8 C 18,9 C 16,7 C 56 % 1013,5 hPa 0,0 l/m 0 min 0 min 20 W/m 6,8 km/h (2 Bft) 97,87 %
19.07.2018 21:14 24,8 C 18,9 C 16,7 C 57 % 1013,5 hPa 0,0 l/m 0 min 0 min 18 W/m 4,5 km/h (1 Bft) 100,00 %
19.07.2018 21:16 24,7 C 18,9 C 16,7 C 57 % 1013,6 hPa 0,0 l/m 0 min 0 min 17 W/m 4,5 km/h (1 Bft) 97,87 %
19.07.2018 21:18 24,6 C 18,3 C 16,7 C 57 % 1013,6 hPa 0,0 l/m 0 min 0 min 15 W/m 6,8 km/h (2 Bft) 100,00 %
19.07.2018 21:20 24,5 C 18,3 C 16,7 C 56 % 1013,5 hPa 0,0 l/m 0 min 0 min 14 W/m 9,0 km/h (2 Bft) 97,83 %
19.07.2018 21:22 24,4 C 17,8 C 16,7 C 58 % 1013,6 hPa 0,0 l/m 0 min 0 min 13 W/m 2,3 km/h (1 Bft) 95,74 %
19.07.2018 21:24 24,3 C 17,8 C 16,7 C 58 % 1013,6 hPa 0,0 l/m 0 min 0 min 12 W/m 4,5 km/h (1 Bft) 95,74 %
19.07.2018 21:26 24,3 C 17,8 C 16,7 C 58 % 1013,6 hPa 0,0 l/m 0 min 0 min 11 W/m 4,5 km/h (1 Bft) 93,62 %
19.07.2018 21:28 24,2 C 17,8 C 16,7 C 58 % 1013,6 hPa 0,0 l/m 0 min 0 min 10 W/m 6,8 km/h (2 Bft) 95,74 %
19.07.2018 21:30 24,1 C 17,8 C 16,7 C 58 % 1013,6 hPa 0,0 l/m 0 min 0 min 9 W/m 4,5 km/h (1 Bft) 95,65 %
19.07.2018 21:32 24,1 C 17,8 C 16,7 C 59 % 1013,6 hPa 0,0 l/m 0 min 0 min 7 W/m 4,5 km/h (1 Bft) 93,62 %
19.07.2018 21:34 24,0 C 17,8 C 16,7 C 59 % 1013,6 hPa 0,0 l/m 0 min 0 min 7 W/m 2,3 km/h (1 Bft) 95,74 %
19.07.2018 21:36 23,9 C 18,3 C 16,7 C 59 % 1013,6 hPa 0,0 l/m 0 min 0 min 6 W/m 2,3 km/h (1 Bft) 95,74 %
19.07.2018 21:38 23,8 C 18,3 C 16,7 C 59 % 1013,6 hPa 0,0 l/m 0 min 0 min 5 W/m 9,0 km/h (2 Bft) 95,74 %
19.07.2018 21:40 23,7 C 17,8 C 16,1 C 59 % 1013,6 hPa 0,0 l/m 0 min 0 min 5 W/m 4,5 km/h (1 Bft) 95,74 %
19.07.2018 21:42 23,7 C 17,2 C 16,1 C 60 % 1013,6 hPa 0,0 l/m 0 min 0 min 3 W/m 2,3 km/h (1 Bft) 95,74 %
19.07.2018 21:44 23,6 C 17,2 C 16,1 C 61 % 1013,6 hPa 0,0 l/m 0 min 0 min 0 W/m 2,3 km/h (1 Bft) 93,48 %
19.07.2018 21:46 23,6 C 17,2 C 16,1 C 61 % 1013,6 hPa 0,0 l/m 0 min 0 min 0 W/m 4,5 km/h (1 Bft) 93,62 %
19.07.2018 21:48 23,5 C 17,2 C 16,1 C 60 % 1013,6 hPa 0,0 l/m 0 min 0 min 0 W/m 2,3 km/h (1 Bft) 95,74 %
19.07.2018 21:50 23,4 C 17,2 C 16,1 C 61 % 1013,7 hPa 0,0 l/m 0 min 0 min 0 W/m 6,8 km/h (2 Bft) 95,74 %
19.07.2018 21:52 23,3 C 17,2 C 16,7 C 61 % 1013,7 hPa 0,0 l/m 0 min 0 min 0 W/m 4,5 km/h (1 Bft) 95,74 %
19.07.2018 21:54 23,3 C 17,2 C 16,7 C 60 % 1013,7 hPa 0,0 l/m 0 min 0 min 0 W/m 6,8 km/h (2 Bft) 95,65 %
19.07.2018 21:56 23,2 C 17,8 C 16,7 C 60 % 1013,7 hPa 0,0 l/m 0 min 0 min 0 W/m 4,5 km/h (1 Bft) 91,49 %
19.07.2018 21:58 23,1 C 17,8 C 16,7 C 61 % 1013,7 hPa 0,0 l/m 0 min 0 min 0 W/m 4,5 km/h (1 Bft) 93,62 %
19.07.2018 22:00 23,1 C 17,8 C 16,7 C 61 % 1013,7 hPa 0,0 l/m 0 min 0 min 0 W/m 6,8 km/h (2 Bft) 95,74 %
19.07.2018 22:02 22,9 C 17,8 C 16,7 C 61 % 1013,7 hPa 0,0 l/m 0 min 0 min 0 W/m 4,5 km/h (1 Bft) 93,62 %
19.07.2018 22:04 22,9 C 17,8 C 16,7 C 62 % 1013,7 hPa 0,0 l/m 0 min 0 min 0 W/m 2,3 km/h (1 Bft) 95,74 %
19.07.2018 22:06 22,9 C 18,3 C 17,2 C 62 % 1013,6 hPa 0,0 l/m 0 min 0 min 0 W/m 4,5 km/h (1 Bft) 93,48 %
19.07.2018 22:08 22,8 C 18,3 C 17,2 C 62 % 1013,7 hPa 0,0 l/m 0 min 0 min 0 W/m 6,8 km/h (2 Bft) 93,62 %
19.07.2018 22:10 22,7 C 18,3 C 17,2 C 61 % 1013,8 hPa 0,0 l/m 0 min 0 min 0 W/m 6,8 km/h (2 Bft) 95,74 %
19.07.2018 22:12 22,7 C 18,3 C 17,2 C 62 % 1013,8 hPa 0,0 l/m 0 min 0 min 0 W/m 4,5 km/h (1 Bft) 93,62 %
19.07.2018 22:14 22,6 C 18,3 C 17,2 C 62 % 1013,7 hPa 0,0 l/m 0 min 0 min 0 W/m 6,8 km/h (2 Bft) 95,74 %
19.07.2018 22:16 22,6 C 18,9 C 17,8 C 62 % 1013,8 hPa 0,0 l/m 0 min 0 min 0 W/m 6,8 km/h (2 Bft) 95,74 %
19.07.2018 22:18 22,5 C 19,4 C 17,8 C 62 % 1013,9 hPa 0,0 l/m 0 min 0 min 0 W/m 9,0 km/h (2 Bft) 93,48 %
19.07.2018 22:20 22,4 C 19,4 C 17,8 C 63 % 1013,8 hPa 0,0 l/m 0 min 0 min 0 W/m 2,3 km/h (1 Bft) 93,62 %
19.07.2018 22:22 22,4 C 20,0 C 17,8 C 63 % 1013,8 hPa 0,0 l/m 0 min 0 min 0 W/m 9,0 km/h (2 Bft) 95,74 %
19.07.2018 22:24 22,3 C 20,0 C 17,8 C 63 % 1013,8 hPa 0,0 l/m 0 min 0 min 0 W/m 11,3 km/h (2 Bft) 97,87 %
19.07.2018 22:26 22,3 C 20,6 C 17,8 C 63 % 1013,8 hPa 0,0 l/m 0 min 0 min 0 W/m 9,0 km/h (2 Bft) 97,87 %
19.07.2018 22:28 22,3 C 20,6 C 17,8 C 63 % 1013,8 hPa 0,0 l/m 0 min 0 min 0 W/m 6,8 km/h (2 Bft) 97,87 %
19.07.2018 22:30 22,2 C 20,6 C 17,8 C 63 % 1013,8 hPa 0,0 l/m 0 min 0 min 0 W/m 11,3 km/h (2 Bft) 95,65 %
19.07.2018 22:32 22,2 C 20,6 C 17,8 C 63 % 1013,8 hPa 0,0 l/m 0 min 0 min 0 W/m 9,0 km/h (2 Bft) 97,92 %
19.07.2018 22:34 22,2 C 20,6 C 18,3 C 63 % 1013,8 hPa 0,0 l/m 0 min 0 min 0 W/m 9,0 km/h (2 Bft) 97,87 %
19.07.2018 22:36 22,2 C 20,6 C 18,3 C 63 % 1013,8 hPa 0,0 l/m 0 min 0 min 0 W/m 6,8 km/h (2 Bft) 97,87 %
19.07.2018 22:38 22,2 C 20,6 C 18,3 C 63 % 1013,7 hPa 0,0 l/m 0 min 0 min 0 W/m 11,3 km/h (2 Bft) 93,62 %
19.07.2018 22:40 22,1 C 20,6 C 18,3 C 63 % 1013,8 hPa 0,0 l/m 0 min 0 min 0 W/m 11,3 km/h (2 Bft) 95,65 %
19.07.2018 22:42 22,1 C 20,6 C 18,9 C 63 % 1013,7 hPa 0,0 l/m 0 min 0 min 0 W/m 9,0 km/h (2 Bft) 97,87 %
19.07.2018 22:44 22,1 C 20,6 C 18,9 C 63 % 1013,9 hPa 0,0 l/m 0 min 0 min 0 W/m 11,3 km/h (2 Bft) 97,87 %
19.07.2018 22:46 22,1 C 20,6 C 20,0 C 63 % 1013,9 hPa 0,0 l/m 0 min 0 min 0 W/m 6,8 km/h (2 Bft) 97,87 %
19.07.2018 22:48 22,1 C 20,6 C 20,0 C 63 % 1013,9 hPa 0,0 l/m 0 min 0 min 0 W/m 6,8 km/h (2 Bft) 97,87 %
19.07.2018 22:50 22,0 C 20,6 C 20,0 C 63 % 1013,9 hPa 0,0 l/m 0 min 0 min 0 W/m 13,5 km/h (3 Bft) 97,87 %
19.07.2018 22:52 22,0 C 20,6 C 20,0 C 63 % 1014,0 hPa 0,0 l/m 0 min 0 min 0 W/m 13,5 km/h (3 Bft) 97,83 %
19.07.2018 22:54 22,0 C 20,6 C 20,0 C 63 % 1013,9 hPa 0,0 l/m 0 min 0 min 0 W/m 9,0 km/h (2 Bft) 95,74 %
19.07.2018 22:56 22,0 C 20,6 C 20,6 C 63 % 1013,9 hPa 0,0 l/m 0 min 0 min 0 W/m 9,0 km/h (2 Bft) 100,00 %
19.07.2018 22:58 21,9 C 20,6 C 20,0 C 63 % 1013,9 hPa 0,0 l/m 0 min 0 min 0 W/m 4,5 km/h (1 Bft) 100,00 %
19.07.2018 23:00 21,9 C 20,0 C 20,0 C 63 % 1013,9 hPa 0,0 l/m 0 min 0 min 0 W/m 6,8 km/h (2 Bft) 97,87 %
19.07.2018 23:02 21,9 C 20,0 C 20,0 C 64 % 1013,9 hPa 0,0 l/m 0 min 0 min 0 W/m 6,8 km/h (2 Bft) 100,00 %
19.07.2018 23:04 21,9 C 20,0 C 20,0 C 64 % 1014,0 hPa 0,0 l/m 0 min 0 min 0 W/m 9,0 km/h (2 Bft) 100,00 %
19.07.2018 23:06 21,9 C 20,0 C 20,0 C 64 % 1014,0 hPa 0,0 l/m 0 min 0 min 0 W/m 6,8 km/h (2 Bft) 100,00 %
19.07.2018 23:08 21,9 C 20,0 C 20,0 C 64 % 1014,1 hPa 0,0 l/m 0 min 0 min 0 W/m 9,0 km/h (2 Bft) 100,00 %
19.07.2018 23:10 21,8 C 20,0 C 20,0 C 64 % 1014,0 hPa 0,0 l/m 0 min 0 min 0 W/m 6,8 km/h (2 Bft) 97,87 %
19.07.2018 23:12 21,8 C 20,0 C 20,0 C 64 % 1014,0 hPa 0,0 l/m 0 min 0 min 0 W/m 6,8 km/h (2 Bft) 97,87 %
19.07.2018 23:14 21,8 C 20,0 C 20,0 C 64 % 1014,0 hPa 0,0 l/m 0 min 0 min 0 W/m 4,5 km/h (1 Bft) 100,00 %
19.07.2018 23:16 21,7 C 20,0 C 20,0 C 64 % 1014,0 hPa 0,0 l/m 0 min 0 min 0 W/m 6,8 km/h (2 Bft) 97,83 %
19.07.2018 23:18 21,7 C 20,0 C 20,0 C 63 % 1014,0 hPa 0,0 l/m 0 min 0 min 0 W/m 9,0 km/h (2 Bft) 100,00 %
19.07.2018 23:20 21,7 C 20,6 C 20,0 C 63 % 1014,0 hPa 0,0 l/m 0 min 0 min 0 W/m 6,8 km/h (2 Bft) 100,00 %
19.07.2018 23:22 21,7 C 20,6 C 20,0 C 63 % 1014,0 hPa 0,0 l/m 0 min 0 min 0 W/m 13,5 km/h (3 Bft) 100,00 %
19.07.2018 23:24 21,6 C 20,6 C 20,0 C 63 % 1013,9 hPa 0,0 l/m 0 min 0 min 0 W/m 9,0 km/h (2 Bft) 100,00 %
19.07.2018 23:26 21,6 C 20,6 C 20,0 C 63 % 1014,1 hPa 0,0 l/m 0 min 0 min 0 W/m 15,8 km/h (3 Bft) 100,00 %
19.07.2018 23:28 21,6 C 20,6 C 20,0 C 63 % 1014,0 hPa 0,0 l/m 0 min 0 min 0 W/m 4,5 km/h (1 Bft) 97,83 %
19.07.2018 23:30 21,6 C 20,6 C 20,0 C 63 % 1014,0 hPa 0,0 l/m 0 min 0 min 0 W/m 18,0 km/h (3 Bft) 100,00 %
19.07.2018 23:32 21,6 C 20,6 C 20,0 C 63 % 1014,0 hPa 0,0 l/m 0 min 0 min 0 W/m 6,8 km/h (2 Bft) 100,00 %
19.07.2018 23:34 21,6 C 20,6 C 20,0 C 63 % 1014,0 hPa 0,0 l/m 0 min 0 min 0 W/m 9,0 km/h (2 Bft) 100,00 %
19.07.2018 23:36 21,6 C 20,6 C 20,0 C 63 % 1014,0 hPa 0,0 l/m 0 min 0 min 0 W/m 9,0 km/h (2 Bft) 100,00 %
19.07.2018 23:38 21,6 C 20,6 C 20,0 C 62 % 1014,1 hPa 0,0 l/m 0 min 0 min 0 W/m 4,5 km/h (1 Bft) 97,83 %
19.07.2018 23:40 21,5 C 20,6 C 20,0 C 63 % 1014,1 hPa 0,0 l/m 0 min 0 min 0 W/m 4,5 km/h (1 Bft) 100,00 %
19.07.2018 23:42 21,5 C 20,6 C 20,0 C 63 % 1014,1 hPa 0,0 l/m 0 min 0 min 0 W/m 6,8 km/h (2 Bft) 97,87 %
19.07.2018 23:44 21,5 C 20,6 C 20,0 C 63 % 1014,0 hPa 0,0 l/m 0 min 0 min 0 W/m 4,5 km/h (1 Bft) 97,87 %
19.07.2018 23:46 21,4 C 20,0 C 20,0 C 63 % 1014,0 hPa 0,0 l/m 0 min 0 min 0 W/m 4,5 km/h (1 Bft) 97,87 %
19.07.2018 23:48 21,4 C 20,0 C 20,0 C 63 % 1014,0 hPa 0,0 l/m 0 min 0 min 0 W/m 6,8 km/h (2 Bft) 97,87 %
19.07.2018 23:50 21,4 C 20,0 C 20,0 C 63 % 1014,0 hPa 0,0 l/m 0 min 0 min 0 W/m 4,5 km/h (1 Bft) 100,00 %
19.07.2018 23:52 21,4 C 20,0 C 20,0 C 63 % 1014,0 hPa 0,0 l/m 0 min 0 min 0 W/m 9,0 km/h (2 Bft) 100,00 %
19.07.2018 23:54 21,4 C 20,0 C 20,0 C 63 % 1014,1 hPa 0,0 l/m 0 min 0 min 0 W/m 9,0 km/h (2 Bft) 97,87 %
19.07.2018 23:56 21,3 C 20,0 C 20,0 C 62 % 1014,1 hPa 0,0 l/m 0 min 0 min 0 W/m 4,5 km/h (1 Bft) 97,87 %
19.07.2018 23:58 21,3 C 20,0 C 19,4 C 63 % 1014,1 hPa 0,0 l/m 0 min 0 min 0 W/m 6,8 km/h (2 Bft) 97,87 %
_ Min-Zeit 06:16 05:44 05:48 17:50 19:56 - - - - 00:00 01:00
Minimum _ 14,5 C 13,3 C 13,3 C 41 % 1013,2 hPa - - - - 0,0 km/h (0 Bft) 91,30 %
_ Max-Zeit 17:20 12:08 17:52 06:46 09:52 00:00 12:08 00:00 14:28 13:00 01:52
Maximum _ 29,1 C 36,1 C 27,2 C 88 % 1016,7 hPa 0,0 l/m 4 min 0 min 990 W/m 18,0 km/h
SO (3 Bft)
100,00 %
Durchschnitt _ 22,4 C 22,3 C 19,7 C 63 % 1015,2 hPa #0,0 l/m #9:06 h #0 min. 384 W/m 5,4 km/h (1 Bft) 97,50 %
© 2018 W. Hausmann